Wetterdaten: Freitag, 30.10.2015
Datum Zeit Temp. A. Feuchte A. Luftdruck Regen Wind Richtung Richtung Sonnenschein ET UV Solar Taupunkt Windchill Windben Empfang
30.10.2015 00:00 8,5 C 93 % 1024,1 hPa 0,0 l/m 0,0 km/h (0 Bft) N 350 0 min 0,000 mm 0,0 UV-I 0 W/m 7,4 C 8,5 C 0,0 km/h (0 Bft) 100,00 %
30.10.2015 00:05 8,5 C 92 % 1024,1 hPa 0,0 l/m 0,0 km/h (0 Bft) N 350 0 min 0,000 mm 0,0 UV-I 0 W/m 7,3 C 8,5 C 0,0 km/h (0 Bft) 99,15 %
30.10.2015 00:10 8,4 C 92 % 1024,1 hPa 0,0 l/m 0,0 km/h (0 Bft) N 350 0 min 0,000 mm 0,0 UV-I 0 W/m 7,2 C 8,4 C 0,0 km/h (0 Bft) 100,00 %
30.10.2015 00:15 8,4 C 94 % 1024,1 hPa 0,0 l/m 0,1 km/h (0 Bft) N 350 0 min 0,000 mm 0,0 UV-I 0 W/m 7,5 C 8,4 C 1,6 km/h (1 Bft) 100,00 %
30.10.2015 00:20 8,3 C 94 % 1024,1 hPa 0,0 l/m 0,1 km/h (0 Bft) N 350 0 min 0,000 mm 0,0 UV-I 0 W/m 7,4 C 8,3 C 1,6 km/h (1 Bft) 100,00 %
30.10.2015 00:25 8,4 C 94 % 1024,1 hPa 0,0 l/m 0,0 km/h (0 Bft) N 350 0 min 0,000 mm 0,0 UV-I 0 W/m 7,5 C 8,4 C 0,0 km/h (0 Bft) 99,17 %
30.10.2015 00:30 8,3 C 94 % 1024,2 hPa 0,0 l/m 0,0 km/h (0 Bft) N 350 0 min 0,000 mm 0,0 UV-I 0 W/m 7,4 C 8,3 C 0,0 km/h (0 Bft) 98,31 %
30.10.2015 00:35 8,4 C 93 % 1024,1 hPa 0,0 l/m 0,0 km/h (0 Bft) N 350 0 min 0,000 mm 0,0 UV-I 0 W/m 7,3 C 8,4 C 0,0 km/h (0 Bft) 99,15 %
30.10.2015 00:40 8,4 C 92 % 1024,1 hPa 0,0 l/m 0,0 km/h (0 Bft) N 350 0 min 0,000 mm 0,0 UV-I 0 W/m 7,2 C 8,4 C 0,0 km/h (0 Bft) 100,00 %
30.10.2015 00:45 8,6 C 93 % 1024,2 hPa 0,0 l/m 0,2 km/h (0 Bft) N 350 0 min 0,000 mm 0,0 UV-I 0 W/m 7,5 C 8,6 C 1,6 km/h (1 Bft) 100,00 %
30.10.2015 00:50 8,5 C 93 % 1024,2 hPa 0,0 l/m 0,0 km/h (0 Bft) N 350 0 min 0,000 mm 0,0 UV-I 0 W/m 7,4 C 8,5 C 0,0 km/h (0 Bft) 100,00 %
30.10.2015 00:55 8,5 C 93 % 1024,2 hPa 0,0 l/m 0,0 km/h (0 Bft) N 350 0 min 0,000 mm 0,0 UV-I 0 W/m 7,4 C 8,5 C 0,0 km/h (0 Bft) 99,15 %
30.10.2015 01:00 8,5 C 92 % 1024,3 hPa 0,0 l/m 0,0 km/h (0 Bft) N 350 0 min 0,000 mm 0,0 UV-I 0 W/m 7,3 C 8,5 C 1,6 km/h (1 Bft) 100,00 %
30.10.2015 01:05 8,5 C 92 % 1024,4 hPa 0,0 l/m 0,0 km/h (0 Bft) N 350 0 min 0,000 mm 0,0 UV-I 0 W/m 7,3 C 8,5 C 0,0 km/h (0 Bft) 98,29 %
30.10.2015 01:10 8,6 C 92 % 1024,4 hPa 0,0 l/m 0,0 km/h (0 Bft) N 350 0 min 0,000 mm 0,0 UV-I 0 W/m 7,4 C 8,6 C 0,0 km/h (0 Bft) 97,46 %
30.10.2015 01:15 8,6 C 91 % 1024,4 hPa 0,0 l/m 0,2 km/h (0 Bft) N 350 0 min 0,000 mm 0,0 UV-I 0 W/m 7,2 C 8,6 C 1,6 km/h (1 Bft) 100,00 %
30.10.2015 01:20 8,6 C 91 % 1024,4 hPa 0,0 l/m 0,0 km/h (0 Bft) N 350 0 min 0,000 mm 0,0 UV-I 0 W/m 7,2 C 8,6 C 0,0 km/h (0 Bft) 99,15 %
30.10.2015 01:25 8,6 C 91 % 1024,4 hPa 0,0 l/m 0,5 km/h (0 Bft) N 355 0 min 0,000 mm 0,0 UV-I 0 W/m 7,2 C 8,6 C 3,2 km/h (1 Bft) 99,15 %
30.10.2015 01:30 8,6 C 91 % 1024,4 hPa 0,0 l/m 0,5 km/h (0 Bft) N 355 0 min 0,000 mm 0,0 UV-I 0 W/m 7,2 C 8,6 C 1,6 km/h (1 Bft) 99,15 %
30.10.2015 01:35 8,4 C 92 % 1024,4 hPa 0,0 l/m 0,9 km/h (0 Bft) N-NO 28 0 min 0,000 mm 0,0 UV-I 0 W/m 7,2 C 8,4 C 3,2 km/h (1 Bft) 99,17 %
30.10.2015 01:40 8,3 C 93 % 1024,5 hPa 0,0 l/m 0,5 km/h (0 Bft) N-NO 28 0 min 0,000 mm 0,0 UV-I 0 W/m 7,2 C 8,3 C 1,6 km/h (1 Bft) 100,00 %
30.10.2015 01:45 8,3 C 92 % 1024,6 hPa 0,0 l/m 0,4 km/h (0 Bft) N-NO 28 0 min 0,000 mm 0,0 UV-I 0 W/m 7,1 C 8,3 C 1,6 km/h (1 Bft) 97,52 %
30.10.2015 01:50 8,3 C 93 % 1024,6 hPa 0,0 l/m 0,2 km/h (0 Bft) N-NO 28 0 min 0,000 mm 0,0 UV-I 0 W/m 7,2 C 8,3 C 1,6 km/h (1 Bft) 99,15 %
30.10.2015 01:55 8,3 C 93 % 1024,7 hPa 0,0 l/m 0,0 km/h (0 Bft) N-NO 28 0 min 0,000 mm 0,0 UV-I 0 W/m 7,2 C 8,3 C 0,0 km/h (0 Bft) 100,00 %
30.10.2015 02:00 8,3 C 93 % 1024,8 hPa 0,0 l/m 0,0 km/h (0 Bft) N-NO 28 0 min 0,000 mm 0,0 UV-I 0 W/m 7,2 C 8,3 C 0,0 km/h (0 Bft) 99,15 %
30.10.2015 02:05 8,3 C 92 % 1024,8 hPa 0,0 l/m 0,0 km/h (0 Bft) N-NO 28 0 min 0,000 mm 0,0 UV-I 0 W/m 7,1 C 8,3 C 0,0 km/h (0 Bft) 99,15 %
30.10.2015 02:10 8,2 C 93 % 1024,8 hPa 0,0 l/m 0,0 km/h (0 Bft) N-NO 28 0 min 0,000 mm 0,0 UV-I 0 W/m 7,1 C 8,2 C 0,0 km/h (0 Bft) 98,94 %
30.10.2015 02:15 8,0 C 94 % 1024,9 hPa 0,0 l/m 0,5 km/h (0 Bft) S-SO 147 0 min 0,000 mm 0,0 UV-I 0 W/m 7,1 C 8,0 C 3,2 km/h (1 Bft) 99,26 %
30.10.2015 02:20 8,0 C 94 % 1024,9 hPa 0,0 l/m 0,5 km/h (0 Bft) S-SO 147 0 min 0,000 mm 0,0 UV-I 0 W/m 7,1 C 8,0 C 3,2 km/h (1 Bft) 100,00 %
30.10.2015 02:25 8,0 C 94 % 1025,0 hPa 0,0 l/m 0,0 km/h (0 Bft) S-SO 147 0 min 0,000 mm 0,0 UV-I 0 W/m 7,1 C 8,0 C 1,6 km/h (1 Bft) 98,29 %
30.10.2015 02:30 8,1 C 94 % 1025,0 hPa 0,0 l/m 0,0 km/h (0 Bft) S-SO 147 0 min 0,000 mm 0,0 UV-I 0 W/m 7,2 C 8,1 C 0,0 km/h (0 Bft) 100,00 %
30.10.2015 02:35 8,1 C 94 % 1025,0 hPa 0,0 l/m 0,0 km/h (0 Bft) S-SO 147 0 min 0,000 mm 0,0 UV-I 0 W/m 7,2 C 8,1 C 0,0 km/h (0 Bft) 97,46 %
30.10.2015 02:40 8,1 C 94 % 1025,0 hPa 0,0 l/m 0,0 km/h (0 Bft) S-SO 147 0 min 0,000 mm 0,0 UV-I 0 W/m 7,2 C 8,1 C 0,0 km/h (0 Bft) 99,15 %
30.10.2015 02:45 8,2 C 93 % 1025,0 hPa 0,0 l/m 0,4 km/h (0 Bft) S-SO 147 0 min 0,000 mm 0,0 UV-I 0 W/m 7,1 C 8,2 C 1,6 km/h (1 Bft) 99,15 %
30.10.2015 02:50 8,3 C 93 % 1025,2 hPa 0,0 l/m 0,6 km/h (0 Bft) S-SO 147 0 min 0,000 mm 0,0 UV-I 0 W/m 7,2 C 8,3 C 1,6 km/h (1 Bft) 98,33 %
30.10.2015 02:55 8,3 C 92 % 1025,2 hPa 0,0 l/m 0,1 km/h (0 Bft) S-SO 147 0 min 0,000 mm 0,0 UV-I 0 W/m 7,1 C 8,3 C 1,6 km/h (1 Bft) 99,15 %
30.10.2015 03:00 8,3 C 92 % 1025,1 hPa 0,0 l/m 0,6 km/h (0 Bft) S-SO 147 0 min 0,000 mm 0,0 UV-I 0 W/m 7,1 C 8,3 C 3,2 km/h (1 Bft) 99,08 %
30.10.2015 03:05 8,3 C 93 % 1025,1 hPa 0,0 l/m 0,9 km/h (0 Bft) O-SO 123 0 min 0,000 mm 0,0 UV-I 0 W/m 7,2 C 8,3 C 3,2 km/h (1 Bft) 99,15 %
30.10.2015 03:10 8,3 C 93 % 1025,2 hPa 0,0 l/m 0,0 km/h (0 Bft) O-SO 123 0 min 0,000 mm 0,0 UV-I 0 W/m 7,2 C 8,3 C 1,6 km/h (1 Bft) 100,00 %
30.10.2015 03:15 8,3 C 93 % 1025,1 hPa 0,0 l/m 0,0 km/h (0 Bft) O-SO 123 0 min 0,000 mm 0,0 UV-I 0 W/m 7,2 C 8,3 C 0,0 km/h (0 Bft) 99,15 %
30.10.2015 03:20 8,3 C 92 % 1025,0 hPa 0,0 l/m 0,3 km/h (0 Bft) O-SO 123 0 min 0,000 mm 0,0 UV-I 0 W/m 7,1 C 8,3 C 1,6 km/h (1 Bft) 99,15 %
30.10.2015 03:25 8,3 C 94 % 1024,9 hPa 0,0 l/m 0,4 km/h (0 Bft) O-SO 123 0 min 0,000 mm 0,0 UV-I 0 W/m 7,4 C 8,3 C 1,6 km/h (1 Bft) 99,15 %
30.10.2015 03:30 8,3 C 93 % 1025,0 hPa 0,0 l/m 0,8 km/h (0 Bft) O-SO 123 0 min 0,000 mm 0,0 UV-I 0 W/m 7,2 C 8,3 C 1,6 km/h (1 Bft) 96,58 %
30.10.2015 03:35 8,3 C 93 % 1025,0 hPa 0,0 l/m 0,6 km/h (0 Bft) O-SO 123 0 min 0,000 mm 0,0 UV-I 0 W/m 7,2 C 8,3 C 3,2 km/h (1 Bft) 98,31 %
30.10.2015 03:40 8,3 C 93 % 1024,9 hPa 0,0 l/m 0,3 km/h (0 Bft) O-SO 123 0 min 0,000 mm 0,0 UV-I 0 W/m 7,2 C 8,3 C 1,6 km/h (1 Bft) 98,31 %
30.10.2015 03:45 8,3 C 93 % 1025,0 hPa 0,0 l/m 0,5 km/h (0 Bft) SO 124 0 min 0,000 mm 0,0 UV-I 0 W/m 7,2 C 8,3 C 3,2 km/h (1 Bft) 100,00 %
30.10.2015 03:50 8,3 C 92 % 1025,1 hPa 0,0 l/m 0,2 km/h (0 Bft) SO 124 0 min 0,000 mm 0,0 UV-I 0 W/m 7,1 C 8,3 C 1,6 km/h (1 Bft) 100,00 %
30.10.2015 03:55 8,3 C 92 % 1025,2 hPa 0,0 l/m 0,0 km/h (0 Bft) SO 124 0 min 0,000 mm 0,0 UV-I 0 W/m 7,1 C 8,3 C 1,6 km/h (1 Bft) 100,00 %
30.10.2015 04:00 8,3 C 93 % 1025,3 hPa 0,0 l/m 0,2 km/h (0 Bft) SO 124 0 min 0,000 mm 0,0 UV-I 0 W/m 7,2 C 8,3 C 1,6 km/h (1 Bft) 98,31 %
30.10.2015 04:05 8,3 C 94 % 1025,3 hPa 0,0 l/m 0,0 km/h (0 Bft) SO 124 0 min 0,000 mm 0,0 UV-I 0 W/m 7,4 C 8,3 C 1,6 km/h (1 Bft) 98,95 %
30.10.2015 04:10 8,3 C 93 % 1025,3 hPa 0,0 l/m 0,1 km/h (0 Bft) SO 124 0 min 0,000 mm 0,0 UV-I 0 W/m 7,2 C 8,3 C 1,6 km/h (1 Bft) 97,17 %
30.10.2015 04:15 8,3 C 94 % 1025,3 hPa 0,0 l/m 0,2 km/h (0 Bft) SO 124 0 min 0,000 mm 0,0 UV-I 0 W/m 7,4 C 8,3 C 1,6 km/h (1 Bft) 98,33 %
30.10.2015 04:20 8,3 C 94 % 1025,3 hPa 0,0 l/m 0,4 km/h (0 Bft) SO 124 0 min 0,000 mm 0,0 UV-I 0 W/m 7,4 C 8,3 C 1,6 km/h (1 Bft) 98,35 %
30.10.2015 04:25 8,3 C 93 % 1025,3 hPa 0,0 l/m 0,2 km/h (0 Bft) SO 124 0 min 0,000 mm 0,0 UV-I 0 W/m 7,2 C 8,3 C 1,6 km/h (1 Bft) 99,12 %
30.10.2015 04:30 8,3 C 93 % 1025,4 hPa 0,0 l/m 0,1 km/h (0 Bft) O 88 0 min 0,000 mm 0,0 UV-I 0 W/m 7,2 C 8,3 C 1,6 km/h (1 Bft) 100,00 %
30.10.2015 04:35 8,3 C 94 % 1025,5 hPa 0,0 l/m 0,0 km/h (0 Bft) O 88 0 min 0,000 mm 0,0 UV-I 0 W/m 7,4 C 8,3 C 0,0 km/h (0 Bft) 98,31 %
30.10.2015 04:40 8,3 C 93 % 1025,5 hPa 0,0 l/m 0,0 km/h (0 Bft) O 88 0 min 0,000 mm 0,0 UV-I 0 W/m 7,2 C 8,3 C 1,6 km/h (1 Bft) 97,50 %
30.10.2015 04:45 8,3 C 93 % 1025,6 hPa 0,0 l/m 0,2 km/h (0 Bft) O 88 0 min 0,000 mm 0,0 UV-I 0 W/m 7,2 C 8,3 C 1,6 km/h (1 Bft) 100,00 %
30.10.2015 04:50 8,3 C 93 % 1025,6 hPa 0,0 l/m 0,3 km/h (0 Bft) O 87 0 min 0,000 mm 0,0 UV-I 0 W/m 7,2 C 8,3 C 1,6 km/h (1 Bft) 97,50 %
30.10.2015 04:55 8,3 C 94 % 1025,6 hPa 0,0 l/m 0,5 km/h (0 Bft) O 87 0 min 0,000 mm 0,0 UV-I 0 W/m 7,4 C 8,3 C 1,6 km/h (1 Bft) 99,15 %
30.10.2015 05:00 8,3 C 94 % 1025,6 hPa 0,0 l/m 0,9 km/h (0 Bft) O-NO 74 0 min 0,000 mm 0,0 UV-I 0 W/m 7,4 C 8,3 C 3,2 km/h (1 Bft) 98,17 %
30.10.2015 05:05 8,3 C 93 % 1025,6 hPa 0,0 l/m 0,9 km/h (0 Bft) NO 49 0 min 0,000 mm 0,0 UV-I 0 W/m 7,2 C 8,3 C 3,2 km/h (1 Bft) 99,17 %
30.10.2015 05:10 8,3 C 93 % 1025,6 hPa 0,0 l/m 0,7 km/h (0 Bft) NO 48 0 min 0,000 mm 0,0 UV-I 0 W/m 7,2 C 8,3 C 3,2 km/h (1 Bft) 100,00 %
30.10.2015 05:15 8,3 C 93 % 1025,7 hPa 0,0 l/m 0,6 km/h (0 Bft) NO 48 0 min 0,000 mm 0,0 UV-I 0 W/m 7,2 C 8,3 C 1,6 km/h (1 Bft) 99,17 %
30.10.2015 05:20 8,3 C 93 % 1025,7 hPa 0,0 l/m 1,0 km/h (0 Bft) NO 48 0 min 0,000 mm 0,0 UV-I 0 W/m 7,2 C 8,3 C 1,6 km/h (1 Bft) 99,15 %
30.10.2015 05:25 8,3 C 93 % 1025,7 hPa 0,0 l/m 0,8 km/h (0 Bft) NO 37 0 min 0,000 mm 0,0 UV-I 0 W/m 7,2 C 8,3 C 1,6 km/h (1 Bft) 99,17 %
30.10.2015 05:30 8,3 C 93 % 1025,7 hPa 0,0 l/m 0,8 km/h (0 Bft) NO 51 0 min 0,000 mm 0,0 UV-I 0 W/m 7,2 C 8,3 C 3,2 km/h (1 Bft) 99,15 %
30.10.2015 05:35 8,2 C 93 % 1025,7 hPa 0,0 l/m 0,7 km/h (0 Bft) NO 50 0 min 0,000 mm 0,0 UV-I 0 W/m 7,1 C 8,2 C 3,2 km/h (1 Bft) 99,15 %
30.10.2015 05:40 8,2 C 94 % 1025,7 hPa 0,0 l/m 0,5 km/h (0 Bft) NO 50 0 min 0,000 mm 0,0 UV-I 0 W/m 7,3 C 8,2 C 3,2 km/h (1 Bft) 97,46 %
30.10.2015 05:45 8,2 C 94 % 1025,6 hPa 0,0 l/m 0,3 km/h (0 Bft) NO 50 0 min 0,000 mm 0,0 UV-I 0 W/m 7,3 C 8,2 C 1,6 km/h (1 Bft) 98,15 %
30.10.2015 05:50 8,2 C 94 % 1025,6 hPa 0,0 l/m 1,9 km/h (1 Bft) O-NO 74 0 min 0,000 mm 0,0 UV-I 0 W/m 7,3 C 8,2 C 4,8 km/h (1 Bft) 99,17 %
30.10.2015 05:55 8,2 C 94 % 1025,6 hPa 0,0 l/m 1,1 km/h (1 Bft) O 86 0 min 0,000 mm 0,0 UV-I 0 W/m 7,3 C 8,2 C 3,2 km/h (1 Bft) 100,00 %
30.10.2015 06:00 8,2 C 94 % 1025,6 hPa 0,0 l/m 2,1 km/h (1 Bft) O-NO 71 0 min 0,000 mm 0,0 UV-I 0 W/m 7,3 C 8,2 C 4,8 km/h (1 Bft) 99,15 %
30.10.2015 06:05 8,2 C 94 % 1025,6 hPa 0,0 l/m 1,3 km/h (1 Bft) O 80 0 min 0,000 mm 0,0 UV-I 0 W/m 7,3 C 8,2 C 3,2 km/h (1 Bft) 98,36 %
30.10.2015 06:10 8,2 C 94 % 1025,6 hPa 0,0 l/m 1,1 km/h (1 Bft) O-SO 115 0 min 0,000 mm 0,0 UV-I 0 W/m 7,3 C 8,2 C 3,2 km/h (1 Bft) 99,06 %
30.10.2015 06:15 8,2 C 93 % 1025,6 hPa 0,0 l/m 0,7 km/h (0 Bft) O-SO 113 0 min 0,000 mm 0,0 UV-I 0 W/m 7,1 C 8,2 C 1,6 km/h (1 Bft) 99,15 %
30.10.2015 06:20 8,2 C 93 % 1025,7 hPa 0,0 l/m 1,3 km/h (1 Bft) NO 50 0 min 0,000 mm 0,0 UV-I 0 W/m 7,1 C 8,2 C 3,2 km/h (1 Bft) 98,31 %
30.10.2015 06:25 8,3 C 93 % 1025,6 hPa 0,0 l/m 0,7 km/h (0 Bft) NO 54 0 min 0,000 mm 0,0 UV-I 0 W/m 7,2 C 8,3 C 1,6 km/h (1 Bft) 96,58 %
30.10.2015 06:30 8,2 C 93 % 1025,6 hPa 0,0 l/m 0,6 km/h (0 Bft) NO 55 0 min 0,000 mm 0,0 UV-I 0 W/m 7,1 C 8,2 C 3,2 km/h (1 Bft) 100,00 %
30.10.2015 06:35 8,2 C 93 % 1025,6 hPa 0,0 l/m 1,4 km/h (1 Bft) O-NO 76 0 min 0,000 mm 0,0 UV-I 0 W/m 7,1 C 8,2 C 3,2 km/h (1 Bft) 99,15 %
30.10.2015 06:40 8,2 C 93 % 1025,6 hPa 0,0 l/m 1,6 km/h (1 Bft) O 92 0 min 0,000 mm 0,0 UV-I 0 W/m 7,1 C 8,2 C 3,2 km/h (1 Bft) 99,15 %
30.10.2015 06:45 8,2 C 93 % 1025,6 hPa 0,0 l/m 1,5 km/h (1 Bft) O-NO 69 0 min 0,000 mm 0,0 UV-I 0 W/m 7,1 C 8,2 C 4,8 km/h (1 Bft) 100,00 %
30.10.2015 06:50 8,3 C 93 % 1025,6 hPa 0,0 l/m 3,0 km/h (1 Bft) O-NO 74 0 min 0,000 mm 0,0 UV-I 0 W/m 7,2 C 8,3 C 4,8 km/h (1 Bft) 97,50 %
30.10.2015 06:55 8,3 C 93 % 1025,7 hPa 0,0 l/m 2,3 km/h (1 Bft) O-NO 59 0 min 0,000 mm 0,0 UV-I 3 W/m 7,2 C 8,3 C 6,4 km/h (2 Bft) 99,08 %
30.10.2015 07:00 8,3 C 93 % 1025,7 hPa 0,0 l/m 2,7 km/h (1 Bft) O-NO 69 0 min 0,000 mm 0,0 UV-I 6 W/m 7,2 C 8,3 C 4,8 km/h (1 Bft) 99,15 %
30.10.2015 07:05 8,3 C 93 % 1025,6 hPa 0,0 l/m 1,9 km/h (1 Bft) O 79 0 min 0,000 mm 0,0 UV-I 8 W/m 7,2 C 8,3 C 4,8 km/h (1 Bft) 98,29 %
30.10.2015 07:10 8,3 C 93 % 1025,7 hPa 0,0 l/m 1,2 km/h (1 Bft) O-NO 71 0 min 0,000 mm 0,0 UV-I 11 W/m 7,2 C 8,3 C 3,2 km/h (1 Bft) 98,31 %
30.10.2015 07:15 8,3 C 93 % 1025,7 hPa 0,0 l/m 1,7 km/h (1 Bft) O-NO 57 0 min 0,000 mm 0,0 UV-I 12 W/m 7,2 C 8,3 C 4,8 km/h (1 Bft) 96,61 %
30.10.2015 07:20 8,3 C 92 % 1025,8 hPa 0,0 l/m 3,1 km/h (1 Bft) O 90 0 min 0,000 mm 0,0 UV-I 14 W/m 7,1 C 8,3 C 6,4 km/h (2 Bft) 100,00 %
30.10.2015 07:25 8,3 C 92 % 1025,9 hPa 0,0 l/m 3,3 km/h (1 Bft) O-NO 63 0 min 0,000 mm 0,0 UV-I 17 W/m 7,1 C 8,3 C 9,7 km/h (2 Bft) 99,15 %
30.10.2015 07:30 8,4 C 92 % 1025,9 hPa 0,0 l/m 4,2 km/h (1 Bft) O 82 0 min 0,000 mm 0,0 UV-I 21 W/m 7,2 C 8,4 C 8,0 km/h (2 Bft) 99,17 %
30.10.2015 07:35 8,4 C 92 % 1025,9 hPa 0,0 l/m 4,6 km/h (1 Bft) O-NO 77 0 min 0,000 mm 0,0 UV-I 24 W/m 7,2 C 8,4 C 8,0 km/h (2 Bft) 100,00 %
30.10.2015 07:40 8,4 C 92 % 1026,0 hPa 0,0 l/m 4,3 km/h (1 Bft) O 87 0 min 0,000 mm 0,0 UV-I 29 W/m 7,2 C 8,4 C 9,7 km/h (2 Bft) 97,52 %
30.10.2015 07:45 8,4 C 91 % 1026,0 hPa 0,0 l/m 4,6 km/h (1 Bft) NO 49 0 min 0,000 mm 0,0 UV-I 33 W/m 7,0 C 8,4 C 8,0 km/h (2 Bft) 100,00 %
30.10.2015 07:50 8,5 C 91 % 1025,9 hPa 0,0 l/m 5,9 km/h (2 Bft) NO 43 0 min 0,000 mm 0,0 UV-I 39 W/m 7,1 C 8,5 C 14,5 km/h (3 Bft) 98,31 %
30.10.2015 07:55 8,5 C 91 % 1025,9 hPa 0,0 l/m 5,1 km/h (1 Bft) O 82 0 min 0,000 mm 0,0 UV-I 42 W/m 7,1 C 8,5 C 11,3 km/h (2 Bft) 99,15 %
30.10.2015 08:00 8,5 C 91 % 1025,9 hPa 0,0 l/m 5,8 km/h (2 Bft) O-NO 78 0 min 0,025 mm 0,0 UV-I 44 W/m 7,1 C 8,5 C 11,3 km/h (2 Bft) 100,00 %
30.10.2015 08:05 8,6 C 91 % 1026,0 hPa 0,0 l/m 5,8 km/h (2 Bft) O-NO 65 0 min 0,000 mm 0,0 UV-I 47 W/m 7,2 C 8,6 C 11,3 km/h (2 Bft) 98,31 %
30.10.2015 08:10 8,6 C 91 % 1026,0 hPa 0,0 l/m 6,2 km/h (2 Bft) NO 48 0 min 0,000 mm 0,0 UV-I 50 W/m 7,2 C 8,6 C 12,9 km/h (3 Bft) 100,00 %
30.10.2015 08:15 8,6 C 90 % 1026,1 hPa 0,0 l/m 5,9 km/h (2 Bft) O 84 0 min 0,000 mm 0,0 UV-I 52 W/m 7,1 C 8,6 C 11,3 km/h (2 Bft) 97,50 %
30.10.2015 08:20 8,7 C 90 % 1026,1 hPa 0,0 l/m 4,3 km/h (1 Bft) O 90 0 min 0,000 mm 0,0 UV-I 54 W/m 7,2 C 8,7 C 9,7 km/h (2 Bft) 99,17 %
30.10.2015 08:25 8,7 C 90 % 1026,1 hPa 0,0 l/m 3,1 km/h (1 Bft) O 95 0 min 0,000 mm 0,0 UV-I 57 W/m 7,2 C 8,7 C 6,4 km/h (2 Bft) 99,08 %
30.10.2015 08:30 8,7 C 90 % 1026,1 hPa 0,0 l/m 3,3 km/h (1 Bft) O-NO 70 0 min 0,000 mm 0,0 UV-I 61 W/m 7,2 C 8,7 C 8,0 km/h (2 Bft) 99,17 %
30.10.2015 08:35 8,8 C 90 % 1026,1 hPa 0,0 l/m 3,0 km/h (1 Bft) O-NO 74 0 min 0,000 mm 0,0 UV-I 62 W/m 7,3 C 8,8 C 6,4 km/h (2 Bft) 98,31 %
30.10.2015 08:40 8,8 C 90 % 1026,1 hPa 0,0 l/m 4,7 km/h (1 Bft) O 86 0 min 0,000 mm 0,0 UV-I 64 W/m 7,3 C 8,8 C 8,0 km/h (2 Bft) 96,58 %
30.10.2015 08:45 8,9 C 90 % 1026,1 hPa 0,0 l/m 4,3 km/h (1 Bft) O-NO 77 0 min 0,000 mm 0,0 UV-I 69 W/m 7,4 C 8,9 C 8,0 km/h (2 Bft) 99,15 %
30.10.2015 08:50 8,9 C 90 % 1026,0 hPa 0,0 l/m 4,7 km/h (1 Bft) O 97 0 min 0,000 mm 0,0 UV-I 73 W/m 7,4 C 8,9 C 11,3 km/h (2 Bft) 100,00 %
30.10.2015 08:55 9,0 C 90 % 1026,1 hPa 0,0 l/m 4,7 km/h (1 Bft) O-NO 69 0 min 0,000 mm 0,0 UV-I 76 W/m 7,4 C 9,0 C 11,3 km/h (2 Bft) 99,15 %
30.10.2015 09:00 9,1 C 89 % 1026,1 hPa 0,0 l/m 5,2 km/h (1 Bft) O-SO 106 0 min 0,026 mm 0,0 UV-I 81 W/m 7,4 C 9,1 C 11,3 km/h (2 Bft) 98,31 %
30.10.2015 09:05 9,2 C 89 % 1026,2 hPa 0,0 l/m 5,6 km/h (1 Bft) O 95 0 min 0,000 mm 0,0 UV-I 85 W/m 7,5 C 9,2 C 11,3 km/h (2 Bft) 99,17 %
30.10.2015 09:10 9,2 C 89 % 1026,2 hPa 0,0 l/m 4,4 km/h (1 Bft) O-NO 57 0 min 0,000 mm 0,0 UV-I 86 W/m 7,5 C 9,2 C 9,7 km/h (2 Bft) 99,08 %
30.10.2015 09:15 9,3 C 89 % 1026,3 hPa 0,0 l/m 4,3 km/h (1 Bft) O-SO 102 0 min 0,000 mm 0,0 UV-I 79 W/m 7,6 C 9,3 C 9,7 km/h (2 Bft) 98,35 %
30.10.2015 09:20 9,3 C 88 % 1026,2 hPa 0,0 l/m 2,7 km/h (1 Bft) N-NO 29 0 min 0,000 mm 0,0 UV-I 77 W/m 7,4 C 9,3 C 11,3 km/h (2 Bft) 98,29 %
30.10.2015 09:25 9,3 C 88 % 1026,2 hPa 0,0 l/m 4,5 km/h (1 Bft) O-NO 75 0 min 0,000 mm 0,0 UV-I 80 W/m 7,4 C 9,3 C 11,3 km/h (2 Bft) 97,46 %
30.10.2015 09:30 9,3 C 88 % 1026,2 hPa 0,0 l/m 4,9 km/h (1 Bft) NO 36 0 min 0,000 mm 0,0 UV-I 81 W/m 7,4 C 9,3 C 11,3 km/h (2 Bft) 99,15 %
30.10.2015 09:35 9,4 C 88 % 1026,3 hPa 0,0 l/m 4,0 km/h (1 Bft) N-NO 19 0 min 0,000 mm 0,0 UV-I 84 W/m 7,5 C 9,4 C 8,0 km/h (2 Bft) 97,44 %
30.10.2015 09:40 9,4 C 87 % 1026,3 hPa 0,0 l/m 4,1 km/h (1 Bft) O 84 0 min 0,000 mm 0,0 UV-I 84 W/m 7,3 C 9,4 C 11,3 km/h (2 Bft) 99,15 %
30.10.2015 09:45 9,5 C 87 % 1026,4 hPa 0,0 l/m 5,1 km/h (1 Bft) O 98 0 min 0,000 mm 0,0 UV-I 83 W/m 7,4 C 9,5 C 14,5 km/h (3 Bft) 99,08 %
30.10.2015 09:50 9,5 C 87 % 1026,4 hPa 0,0 l/m 4,7 km/h (1 Bft) O 88 0 min 0,000 mm 0,0 UV-I 84 W/m 7,4 C 9,5 C 11,3 km/h (2 Bft) 98,33 %
30.10.2015 09:55 9,6 C 87 % 1026,4 hPa 0,0 l/m 3,5 km/h (1 Bft) O-NO 65 0 min 0,000 mm 0,0 UV-I 87 W/m 7,5 C 9,6 C 11,3 km/h (2 Bft) 99,15 %
30.10.2015 10:00 9,6 C 87 % 1026,5 hPa 0,0 l/m 5,1 km/h (1 Bft) O 93 0 min 0,051 mm 0,0 UV-I 90 W/m 7,5 C 9,6 C 14,5 km/h (3 Bft) 99,15 %
30.10.2015 10:05 9,6 C 87 % 1026,4 hPa 0,0 l/m 4,4 km/h (1 Bft) O 79 0 min 0,000 mm 0,0 UV-I 92 W/m 7,5 C 9,6 C 12,9 km/h (3 Bft) 100,00 %
30.10.2015 10:10 9,7 C 87 % 1026,4 hPa 0,0 l/m 2,4 km/h (1 Bft) O-SO 106 0 min 0,000 mm 0,5 UV-I 96 W/m 7,6 C 9,7 C 6,4 km/h (2 Bft) 99,15 %
30.10.2015 10:15 9,7 C 87 % 1026,3 hPa 0,0 l/m 4,2 km/h (1 Bft) O 86 0 min 0,000 mm 0,5 UV-I 100 W/m 7,6 C 9,7 C 11,3 km/h (2 Bft) 99,15 %
30.10.2015 10:20 9,7 C 88 % 1026,5 hPa 0,0 l/m 5,4 km/h (1 Bft) O 79 0 min 0,000 mm 0,5 UV-I 100 W/m 7,8 C 9,7 C 12,9 km/h (3 Bft) 100,00 %
30.10.2015 10:25 9,8 C 88 % 1026,5 hPa 0,0 l/m 2,2 km/h (1 Bft) O-NO 77 0 min 0,000 mm 0,5 UV-I 97 W/m 7,9 C 9,8 C 6,4 km/h (2 Bft) 97,44 %
30.10.2015 10:30 9,8 C 88 % 1026,6 hPa 0,0 l/m 2,3 km/h (1 Bft) O 92 0 min 0,000 mm 0,5 UV-I 96 W/m 7,9 C 9,8 C 4,8 km/h (1 Bft) 97,52 %
30.10.2015 10:35 9,8 C 89 % 1026,6 hPa 0,0 l/m 1,7 km/h (1 Bft) O-NO 59 0 min 0,000 mm 0,5 UV-I 94 W/m 8,1 C 9,8 C 4,8 km/h (1 Bft) 97,25 %
30.10.2015 10:40 9,7 C 87 % 1026,7 hPa 0,0 l/m 5,9 km/h (2 Bft) O 93 0 min 0,000 mm 0,5 UV-I 97 W/m 7,6 C 9,7 C 14,5 km/h (3 Bft) 100,00 %
30.10.2015 10:45 9,7 C 88 % 1026,7 hPa 0,0 l/m 4,4 km/h (1 Bft) O 82 0 min 0,000 mm 0,5 UV-I 93 W/m 7,8 C 9,7 C 12,9 km/h (3 Bft) 100,00 %
30.10.2015 10:50 9,8 C 88 % 1026,7 hPa 0,0 l/m 4,0 km/h (1 Bft) O-NO 78 0 min 0,000 mm 0,5 UV-I 95 W/m 7,9 C 9,8 C 11,3 km/h (2 Bft) 99,15 %
30.10.2015 10:55 9,8 C 88 % 1026,7 hPa 0,0 l/m 5,0 km/h (1 Bft) O 80 0 min 0,000 mm 0,5 UV-I 103 W/m 7,9 C 9,8 C 11,3 km/h (2 Bft) 99,15 %
30.10.2015 11:00 9,8 C 89 % 1026,8 hPa 0,0 l/m 3,7 km/h (1 Bft) O-NO 75 0 min 0,050 mm 0,5 UV-I 95 W/m 8,1 C 9,8 C 9,7 km/h (2 Bft) 99,16 %
30.10.2015 11:05 9,8 C 89 % 1026,8 hPa 0,0 l/m 3,9 km/h (1 Bft) O-NO 78 0 min 0,000 mm 0,6 UV-I 104 W/m 8,1 C 9,8 C 11,3 km/h (2 Bft) 97,44 %
30.10.2015 11:10 9,8 C 89 % 1026,8 hPa 0,0 l/m 4,9 km/h (1 Bft) N-NO 28 0 min 0,000 mm 0,6 UV-I 114 W/m 8,1 C 9,8 C 12,9 km/h (3 Bft) 100,00 %
30.10.2015 11:15 9,9 C 89 % 1026,8 hPa 0,0 l/m 4,7 km/h (1 Bft) O 81 0 min 0,000 mm 0,7 UV-I 118 W/m 8,2 C 9,9 C 9,7 km/h (2 Bft) 100,00 %
30.10.2015 11:20 9,9 C 89 % 1026,8 hPa 0,0 l/m 3,3 km/h (1 Bft) NO 43 0 min 0,000 mm 0,6 UV-I 102 W/m 8,2 C 9,9 C 6,4 km/h (2 Bft) 99,17 %
30.10.2015 11:25 9,9 C 89 % 1026,8 hPa 0,0 l/m 3,1 km/h (1 Bft) O-SO 115 0 min 0,000 mm 0,1 UV-I 78 W/m 8,2 C 9,9 C 6,4 km/h (2 Bft) 99,15 %
30.10.2015 11:30 9,9 C 89 % 1026,8 hPa 0,0 l/m 2,6 km/h (1 Bft) O-NO 74 0 min 0,000 mm 0,5 UV-I 95 W/m 8,2 C 9,9 C 4,8 km/h (1 Bft) 99,15 %
30.10.2015 11:35 10,0 C 89 % 1026,8 hPa 0,0 l/m 3,1 km/h (1 Bft) NO 47 0 min 0,000 mm 0,6 UV-I 110 W/m 8,3 C 10,0 C 6,4 km/h (2 Bft) 97,44 %
30.10.2015 11:40 10,0 C 88 % 1026,7 hPa 0,0 l/m 4,7 km/h (1 Bft) NO 51 0 min 0,000 mm 0,6 UV-I 119 W/m 8,1 C 10,0 C 12,9 km/h (3 Bft) 99,15 %
30.10.2015 11:45 10,1 C 88 % 1026,7 hPa 0,0 l/m 3,6 km/h (1 Bft) NO 34 0 min 0,000 mm 0,7 UV-I 126 W/m 8,2 C 10,1 C 12,9 km/h (3 Bft) 99,17 %
30.10.2015 11:50 10,2 C 88 % 1026,7 hPa 0,0 l/m 3,4 km/h (1 Bft) O 96 0 min 0,000 mm 0,6 UV-I 110 W/m 8,3 C 10,2 C 6,4 km/h (2 Bft) 100,00 %
30.10.2015 11:55 10,2 C 88 % 1026,7 hPa 0,0 l/m 3,5 km/h (1 Bft) NO 54 0 min 0,000 mm 0,6 UV-I 99 W/m 8,3 C 10,2 C 8,0 km/h (2 Bft) 100,00 %
30.10.2015 12:00 10,1 C 86 % 1026,7 hPa 0,0 l/m 7,8 km/h (2 Bft) O 96 0 min 0,051 mm 0,4 UV-I 82 W/m 7,9 C 9,1 C 14,5 km/h (3 Bft) 100,00 %
30.10.2015 12:05 10,1 C 86 % 1026,7 hPa 0,0 l/m 5,7 km/h (1 Bft) NO 36 0 min 0,000 mm 0,3 UV-I 80 W/m 7,9 C 10,1 C 16,1 km/h (3 Bft) 98,31 %
30.10.2015 12:10 10,1 C 86 % 1026,6 hPa 0,0 l/m 5,3 km/h (1 Bft) O-NO 77 0 min 0,000 mm 0,0 UV-I 78 W/m 7,9 C 10,1 C 14,5 km/h (3 Bft) 100,00 %
30.10.2015 12:15 10,1 C 86 % 1026,6 hPa 0,0 l/m 7,5 km/h (2 Bft) O 79 0 min 0,000 mm 0,0 UV-I 71 W/m 7,9 C 9,3 C 14,5 km/h (3 Bft) 100,00 %
30.10.2015 12:20 10,1 C 87 % 1026,6 hPa 0,0 l/m 6,2 km/h (2 Bft) O 82 0 min 0,000 mm 0,0 UV-I 73 W/m 8,0 C 10,1 C 11,3 km/h (2 Bft) 99,15 %
30.10.2015 12:25 10,1 C 87 % 1026,6 hPa 0,0 l/m 9,3 km/h (2 Bft) O 86 0 min 0,000 mm 0,1 UV-I 79 W/m 8,0 C 8,1 C 16,1 km/h (3 Bft) 97,32 %
30.10.2015 12:30 10,1 C 86 % 1026,4 hPa 0,0 l/m 8,6 km/h (2 Bft) O-NO 59 0 min 0,000 mm 0,5 UV-I 89 W/m 7,9 C 8,6 C 16,1 km/h (3 Bft) 98,29 %
30.10.2015 12:35 10,2 C 87 % 1026,4 hPa 0,0 l/m 8,4 km/h (2 Bft) O 80 0 min 0,000 mm 0,5 UV-I 98 W/m 8,1 C 8,8 C 17,7 km/h (3 Bft) 98,35 %
30.10.2015 12:40 10,2 C 86 % 1026,5 hPa 0,0 l/m 8,6 km/h (2 Bft) O 97 0 min 0,000 mm 0,4 UV-I 89 W/m 8,0 C 8,7 C 16,1 km/h (3 Bft) 98,33 %
30.10.2015 12:45 10,2 C 85 % 1026,4 hPa 0,0 l/m 8,8 km/h (2 Bft) O-NO 78 0 min 0,000 mm 0,0 UV-I 72 W/m 7,8 C 8,5 C 16,1 km/h (3 Bft) 97,46 %
30.10.2015 12:50 10,3 C 85 % 1026,4 hPa 0,0 l/m 9,1 km/h (2 Bft) O-SO 113 0 min 0,000 mm 0,0 UV-I 80 W/m 7,9 C 8,5 C 16,1 km/h (3 Bft) 98,17 %
30.10.2015 12:55 10,3 C 86 % 1026,4 hPa 0,0 l/m 9,3 km/h (2 Bft) O 87 0 min 0,000 mm 0,0 UV-I 79 W/m 8,1 C 8,3 C 16,1 km/h (3 Bft) 100,00 %
30.10.2015 13:00 10,3 C 86 % 1026,4 hPa 0,0 l/m 8,0 km/h (2 Bft) O 79 0 min 0,051 mm 0,0 UV-I 76 W/m 8,1 C 9,2 C 17,7 km/h (3 Bft) 97,25 %
30.10.2015 13:05 10,3 C 86 % 1026,4 hPa 0,0 l/m 7,6 km/h (2 Bft) O 98 0 min 0,000 mm 0,0 UV-I 79 W/m 8,1 C 9,4 C 16,1 km/h (3 Bft) 98,31 %
30.10.2015 13:10 10,3 C 86 % 1026,3 hPa 0,0 l/m 12,7 km/h (3 Bft) O 92 0 min 0,000 mm 0,0 UV-I 78 W/m 8,1 C 6,5 C 20,9 km/h (4 Bft) 100,00 %
30.10.2015 13:15 10,3 C 86 % 1026,3 hPa 0,0 l/m 9,9 km/h (2 Bft) O 97 0 min 0,000 mm 0,0 UV-I 77 W/m 8,1 C 8,0 C 17,7 km/h (3 Bft) 100,00 %
30.10.2015 13:20 10,3 C 86 % 1026,4 hPa 0,0 l/m 8,7 km/h (2 Bft) O 80 0 min 0,000 mm 0,0 UV-I 84 W/m 8,1 C 8,7 C 16,1 km/h (3 Bft) 98,29 %
30.10.2015 13:25 10,3 C 85 % 1026,4 hPa 0,0 l/m 9,3 km/h (2 Bft) O-NO 76 0 min 0,000 mm 0,0 UV-I 82 W/m 7,9 C 8,3 C 16,1 km/h (3 Bft) 100,00 %
30.10.2015 13:30 10,3 C 86 % 1026,4 hPa 0,0 l/m 10,6 km/h (2 Bft) O 87 0 min 0,000 mm 0,0 UV-I 77 W/m 8,1 C 7,6 C 20,9 km/h (4 Bft) 99,17 %
30.10.2015 13:35 10,3 C 85 % 1026,3 hPa 0,0 l/m 11,0 km/h (2 Bft) O-NO 74 0 min 0,000 mm 0,0 UV-I 79 W/m 7,9 C 7,4 C 16,1 km/h (3 Bft) 100,00 %
30.10.2015 13:40 10,3 C 85 % 1026,2 hPa 0,0 l/m 11,2 km/h (2 Bft) O 91 0 min 0,000 mm 0,0 UV-I 75 W/m 7,9 C 7,3 C 19,3 km/h (3 Bft) 100,00 %
30.10.2015 13:45 10,3 C 85 % 1026,2 hPa 0,0 l/m 14,2 km/h (3 Bft) O-NO 57 0 min 0,000 mm 0,0 UV-I 72 W/m 7,9 C 5,8 C 22,5 km/h (4 Bft) 99,07 %
30.10.2015 13:50 10,3 C 85 % 1026,2 hPa 0,0 l/m 9,4 km/h (2 Bft) O-SO 115 0 min 0,000 mm 0,0 UV-I 76 W/m 7,9 C 8,3 C 16,1 km/h (3 Bft) 98,37 %
30.10.2015 13:55 10,3 C 85 % 1026,1 hPa 0,0 l/m 8,5 km/h (2 Bft) O-SO 105 0 min 0,000 mm 0,0 UV-I 76 W/m 7,9 C 8,8 C 17,7 km/h (3 Bft) 98,36 %
30.10.2015 14:00 10,3 C 85 % 1026,3 hPa 0,0 l/m 10,1 km/h (2 Bft) NO 47 0 min 0,051 mm 0,0 UV-I 74 W/m 7,9 C 7,9 C 17,7 km/h (3 Bft) 97,22 %
30.10.2015 14:05 10,3 C 85 % 1026,3 hPa 0,0 l/m 7,9 km/h (2 Bft) O-NO 65 0 min 0,000 mm 0,0 UV-I 65 W/m 7,9 C 9,2 C 17,7 km/h (3 Bft) 98,35 %
30.10.2015 14:10 10,3 C 85 % 1026,2 hPa 0,0 l/m 10,7 km/h (2 Bft) O 99 0 min 0,000 mm 0,0 UV-I 62 W/m 7,9 C 7,5 C 17,7 km/h (3 Bft) 99,15 %
30.10.2015 14:15 10,3 C 85 % 1026,3 hPa 0,0 l/m 11,3 km/h (2 Bft) O-SO 105 0 min 0,000 mm 0,0 UV-I 68 W/m 7,9 C 7,2 C 19,3 km/h (3 Bft) 97,44 %
30.10.2015 14:20 10,3 C 85 % 1026,4 hPa 0,0 l/m 9,5 km/h (2 Bft) O-NO 75 0 min 0,000 mm 0,0 UV-I 65 W/m 7,9 C 8,2 C 17,7 km/h (3 Bft) 99,15 %
30.10.2015 14:25 10,3 C 85 % 1026,4 hPa 0,0 l/m 9,5 km/h (2 Bft) O 87 0 min 0,000 mm 0,0 UV-I 56 W/m 7,9 C 8,2 C 16,1 km/h (3 Bft) 97,44 %
30.10.2015 14:30 10,3 C 85 % 1026,5 hPa 0,0 l/m 10,0 km/h (2 Bft) O-NO 70 0 min 0,000 mm 0,0 UV-I 53 W/m 7,9 C 7,9 C 17,7 km/h (3 Bft) 99,15 %
30.10.2015 14:35 10,3 C 85 % 1026,4 hPa 0,0 l/m 10,9 km/h (2 Bft) O-NO 65 0 min 0,000 mm 0,0 UV-I 53 W/m 7,9 C 7,4 C 17,7 km/h (3 Bft) 99,15 %
30.10.2015 14:40 10,2 C 85 % 1026,4 hPa 0,0 l/m 8,8 km/h (2 Bft) O 80 0 min 0,000 mm 0,0 UV-I 54 W/m 7,8 C 8,5 C 16,1 km/h (3 Bft) 100,00 %
30.10.2015 14:45 10,2 C 85 % 1026,5 hPa 0,0 l/m 7,7 km/h (2 Bft) O 87 0 min 0,000 mm 0,0 UV-I 51 W/m 7,8 C 9,3 C 17,7 km/h (3 Bft) 99,15 %
30.10.2015 14:50 10,2 C 85 % 1026,6 hPa 0,0 l/m 11,2 km/h (2 Bft) O 90 0 min 0,000 mm 0,0 UV-I 49 W/m 7,8 C 7,2 C 19,3 km/h (3 Bft) 99,08 %
30.10.2015 14:55 10,2 C 85 % 1026,7 hPa 0,0 l/m 11,7 km/h (2 Bft) O 94 0 min 0,000 mm 0,0 UV-I 48 W/m 7,8 C 6,9 C 20,9 km/h (4 Bft) 100,00 %
30.10.2015 15:00 10,2 C 84 % 1026,6 hPa 0,0 l/m 13,6 km/h (3 Bft) O-NO 70 0 min 0,000 mm 0,0 UV-I 47 W/m 7,6 C 6,0 C 22,5 km/h (4 Bft) 98,39 %
30.10.2015 15:05 10,2 C 85 % 1026,6 hPa 0,0 l/m 8,7 km/h (2 Bft) O-SO 116 0 min 0,051 mm 0,0 UV-I 50 W/m 7,8 C 8,6 C 16,1 km/h (3 Bft) 97,25 %
30.10.2015 15:10 10,3 C 85 % 1026,6 hPa 0,0 l/m 6,7 km/h (2 Bft) O-SO 107 0 min 0,000 mm 0,0 UV-I 48 W/m 7,9 C 10,1 C 17,7 km/h (3 Bft) 100,00 %
30.10.2015 15:15 10,3 C 85 % 1026,6 hPa 0,0 l/m 7,7 km/h (2 Bft) O-SO 104 0 min 0,000 mm 0,0 UV-I 47 W/m 7,9 C 9,4 C 19,3 km/h (3 Bft) 97,46 %
30.10.2015 15:20 10,3 C 85 % 1026,5 hPa 0,0 l/m 6,9 km/h (2 Bft) O-NO 57 0 min 0,000 mm 0,0 UV-I 45 W/m 7,9 C 9,9 C 17,7 km/h (3 Bft) 99,15 %
30.10.2015 15:25 10,3 C 85 % 1026,7 hPa 0,0 l/m 7,8 km/h (2 Bft) O-NO 74 0 min 0,000 mm 0,0 UV-I 40 W/m 7,9 C 9,3 C 14,5 km/h (3 Bft) 99,15 %
30.10.2015 15:30 10,3 C 85 % 1026,7 hPa 0,0 l/m 8,0 km/h (2 Bft) O 86 0 min 0,000 mm 0,0 UV-I 34 W/m 7,9 C 9,2 C 16,1 km/h (3 Bft) 99,15 %
30.10.2015 15:35 10,2 C 86 % 1026,8 hPa 0,0 l/m 6,7 km/h (2 Bft) O 98 0 min 0,000 mm 0,0 UV-I 30 W/m 8,0 C 10,0 C 12,9 km/h (3 Bft) 97,22 %
30.10.2015 15:40 10,2 C 86 % 1026,9 hPa 0,0 l/m 8,3 km/h (2 Bft) NO 53 0 min 0,000 mm 0,0 UV-I 26 W/m 8,0 C 8,9 C 19,3 km/h (3 Bft) 99,17 %
30.10.2015 15:45 10,2 C 86 % 1027,0 hPa 0,0 l/m 7,6 km/h (2 Bft) O-NO 70 0 min 0,000 mm 0,0 UV-I 24 W/m 8,0 C 9,3 C 16,1 km/h (3 Bft) 97,25 %
30.10.2015 15:50 10,2 C 86 % 1027,0 hPa 0,0 l/m 8,6 km/h (2 Bft) O-NO 78 0 min 0,000 mm 0,0 UV-I 22 W/m 8,0 C 8,7 C 20,9 km/h (4 Bft) 99,17 %
30.10.2015 15:55 10,1 C 86 % 1027,0 hPa 0,0 l/m 7,3 km/h (2 Bft) O-NO 57 0 min 0,000 mm 0,0 UV-I 20 W/m 7,9 C 9,4 C 17,7 km/h (3 Bft) 99,19 %
30.10.2015 16:00 10,1 C 86 % 1027,0 hPa 0,0 l/m 6,8 km/h (2 Bft) O-NO 72 0 min 0,025 mm 0,0 UV-I 19 W/m 7,9 C 9,8 C 14,5 km/h (3 Bft) 100,00 %
30.10.2015 16:05 10,0 C 86 % 1027,1 hPa 0,0 l/m 7,9 km/h (2 Bft) O-NO 67 0 min 0,000 mm 0,0 UV-I 17 W/m 7,8 C 8,9 C 19,3 km/h (3 Bft) 99,19 %
30.10.2015 16:10 10,0 C 86 % 1027,0 hPa 0,0 l/m 8,2 km/h (2 Bft) O-NO 74 0 min 0,000 mm 0,0 UV-I 14 W/m 7,8 C 8,7 C 14,5 km/h (3 Bft) 99,17 %
30.10.2015 16:15 9,9 C 87 % 1027,0 hPa 0,0 l/m 8,4 km/h (2 Bft) O 93 0 min 0,000 mm 0,0 UV-I 12 W/m 7,8 C 8,5 C 16,1 km/h (3 Bft) 100,00 %
30.10.2015 16:20 9,9 C 87 % 1027,1 hPa 0,0 l/m 8,2 km/h (2 Bft) O-NO 63 0 min 0,000 mm 0,0 UV-I 11 W/m 7,8 C 8,6 C 19,3 km/h (3 Bft) 99,15 %
30.10.2015 16:25 9,8 C 87 % 1027,1 hPa 0,0 l/m 7,6 km/h (2 Bft) O 91 0 min 0,000 mm 0,0 UV-I 9 W/m 7,7 C 8,9 C 14,5 km/h (3 Bft) 99,08 %
30.10.2015 16:30 9,8 C 87 % 1027,2 hPa 0,0 l/m 6,3 km/h (2 Bft) O-NO 74 0 min 0,000 mm 0,0 UV-I 7 W/m 7,7 C 9,8 C 12,9 km/h (3 Bft) 97,62 %
30.10.2015 16:35 9,8 C 88 % 1027,3 hPa 0,0 l/m 6,6 km/h (2 Bft) O-SO 107 0 min 0,000 mm 0,0 UV-I 5 W/m 7,9 C 9,7 C 16,1 km/h (3 Bft) 99,08 %
30.10.2015 16:40 9,7 C 88 % 1027,3 hPa 0,0 l/m 5,1 km/h (1 Bft) O-SO 110 0 min 0,000 mm 0,0 UV-I 2 W/m 7,8 C 9,7 C 12,9 km/h (3 Bft) 97,50 %
30.10.2015 16:45 9,7 C 88 % 1027,3 hPa 0,0 l/m 6,0 km/h (2 Bft) O 101 0 min 0,000 mm 0,0 UV-I 0 W/m 7,8 C 9,7 C 16,1 km/h (3 Bft) 98,31 %
30.10.2015 16:50 9,7 C 88 % 1027,3 hPa 0,0 l/m 6,0 km/h (2 Bft) O-NO 68 0 min 0,000 mm 0,0 UV-I 0 W/m 7,8 C 9,7 C 14,5 km/h (3 Bft) 98,21 %
30.10.2015 16:55 9,7 C 89 % 1027,2 hPa 0,0 l/m 5,3 km/h (1 Bft) O-SO 112 0 min 0,000 mm 0,0 UV-I 0 W/m 8,0 C 9,7 C 14,5 km/h (3 Bft) 99,15 %
30.10.2015 17:00 9,6 C 89 % 1027,2 hPa 0,0 l/m 5,0 km/h (1 Bft) O 83 0 min 0,025 mm 0,0 UV-I 0 W/m 7,9 C 9,6 C 12,9 km/h (3 Bft) 99,17 %
30.10.2015 17:05 9,6 C 89 % 1027,2 hPa 0,0 l/m 7,1 km/h (2 Bft) O 84 0 min 0,000 mm 0,0 UV-I 0 W/m 7,9 C 9,1 C 12,9 km/h (3 Bft) 97,25 %
30.10.2015 17:10 9,6 C 89 % 1027,3 hPa 0,0 l/m 6,3 km/h (2 Bft) O-NO 74 0 min 0,000 mm 0,0 UV-I 0 W/m 7,9 C 9,6 C 12,9 km/h (3 Bft) 99,17 %
30.10.2015 17:15 9,6 C 89 % 1027,3 hPa 0,0 l/m 5,9 km/h (2 Bft) O 98 0 min 0,000 mm 0,0 UV-I 0 W/m 7,9 C 9,6 C 11,3 km/h (2 Bft) 100,00 %
30.10.2015 17:20 9,6 C 89 % 1027,3 hPa 0,0 l/m 7,9 km/h (2 Bft) O-NO 66 0 min 0,000 mm 0,0 UV-I 0 W/m 7,9 C 8,5 C 16,1 km/h (3 Bft) 99,15 %
30.10.2015 17:25 9,6 C 89 % 1027,3 hPa 0,0 l/m 6,6 km/h (2 Bft) O-NO 74 0 min 0,000 mm 0,0 UV-I 0 W/m 7,9 C 9,5 C 14,5 km/h (3 Bft) 100,00 %
30.10.2015 17:30 9,6 C 89 % 1027,3 hPa 0,0 l/m 5,5 km/h (1 Bft) O 90 0 min 0,000 mm 0,0 UV-I 0 W/m 7,9 C 9,6 C 12,9 km/h (3 Bft) 99,15 %
30.10.2015 17:35 9,6 C 90 % 1027,3 hPa 0,0 l/m 6,1 km/h (2 Bft) O 82 0 min 0,000 mm 0,0 UV-I 0 W/m 8,0 C 9,6 C 12,9 km/h (3 Bft) 98,37 %
30.10.2015 17:40 9,6 C 90 % 1027,3 hPa 0,0 l/m 7,2 km/h (2 Bft) O-SO 105 0 min 0,000 mm 0,0 UV-I 0 W/m 8,0 C 9,0 C 14,5 km/h (3 Bft) 99,08 %
30.10.2015 17:45 9,6 C 89 % 1027,4 hPa 0,0 l/m 7,3 km/h (2 Bft) O 91 0 min 0,000 mm 0,0 UV-I 0 W/m 7,9 C 8,9 C 14,5 km/h (3 Bft) 100,00 %
30.10.2015 17:50 9,6 C 90 % 1027,4 hPa 0,0 l/m 8,1 km/h (2 Bft) O-NO 69 0 min 0,000 mm 0,0 UV-I 0 W/m 8,0 C 8,4 C 12,9 km/h (3 Bft) 98,33 %
30.10.2015 17:55 9,6 C 90 % 1027,3 hPa 0,0 l/m 7,9 km/h (2 Bft) O 81 0 min 0,000 mm 0,0 UV-I 0 W/m 8,0 C 8,5 C 12,9 km/h (3 Bft) 99,17 %
30.10.2015 18:00 9,6 C 89 % 1027,3 hPa 0,0 l/m 8,4 km/h (2 Bft) O 82 0 min 0,000 mm 0,0 UV-I 0 W/m 7,9 C 8,2 C 14,5 km/h (3 Bft) 99,15 %
30.10.2015 18:05 9,6 C 89 % 1027,4 hPa 0,0 l/m 7,6 km/h (2 Bft) O-NO 59 0 min 0,000 mm 0,0 UV-I 0 W/m 7,9 C 8,7 C 14,5 km/h (3 Bft) 99,11 %
30.10.2015 18:10 9,6 C 89 % 1027,5 hPa 0,0 l/m 9,6 km/h (2 Bft) O 94 0 min 0,000 mm 0,0 UV-I 0 W/m 7,9 C 7,4 C 16,1 km/h (3 Bft) 98,40 %
30.10.2015 18:15 9,6 C 89 % 1027,4 hPa 0,0 l/m 8,0 km/h (2 Bft) O 84 0 min 0,000 mm 0,0 UV-I 0 W/m 7,9 C 8,4 C 16,1 km/h (3 Bft) 98,97 %
30.10.2015 18:20 9,6 C 89 % 1027,4 hPa 0,0 l/m 9,0 km/h (2 Bft) O-NO 78 0 min 0,000 mm 0,0 UV-I 0 W/m 7,9 C 7,8 C 16,1 km/h (3 Bft) 98,48 %
30.10.2015 18:25 9,6 C 89 % 1027,5 hPa 0,0 l/m 9,7 km/h (2 Bft) O 99 0 min 0,000 mm 0,0 UV-I 0 W/m 7,9 C 7,3 C 16,1 km/h (3 Bft) 98,21 %
30.10.2015 18:30 9,6 C 89 % 1027,6 hPa 0,0 l/m 7,8 km/h (2 Bft) O-NO 72 0 min 0,000 mm 0,0 UV-I 0 W/m 7,9 C 8,6 C 14,5 km/h (3 Bft) 99,17 %
30.10.2015 18:35 9,6 C 89 % 1027,5 hPa 0,0 l/m 7,2 km/h (2 Bft) O-NO 69 0 min 0,000 mm 0,0 UV-I 0 W/m 7,9 C 9,0 C 14,5 km/h (3 Bft) 98,35 %
30.10.2015 18:40 9,6 C 90 % 1027,5 hPa 0,0 l/m 8,0 km/h (2 Bft) O 90 0 min 0,000 mm 0,0 UV-I 0 W/m 8,0 C 8,4 C 12,9 km/h (3 Bft) 97,37 %
30.10.2015 18:45 9,6 C 90 % 1027,6 hPa 0,0 l/m 6,3 km/h (2 Bft) O 88 0 min 0,000 mm 0,0 UV-I 0 W/m 8,0 C 9,6 C 8,0 km/h (2 Bft) 97,46 %
30.10.2015 18:50 9,6 C 89 % 1027,7 hPa 0,0 l/m 9,7 km/h (2 Bft) O 90 0 min 0,000 mm 0,0 UV-I 0 W/m 7,9 C 7,3 C 17,7 km/h (3 Bft) 100,00 %
30.10.2015 18:55 9,7 C 89 % 1027,7 hPa 0,0 l/m 9,7 km/h (2 Bft) O 90 0 min 0,000 mm 0,0 UV-I 0 W/m 8,0 C 7,4 C 14,5 km/h (3 Bft) 100,00 %
30.10.2015 19:00 9,7 C 89 % 1027,8 hPa 0,0 l/m 8,7 km/h (2 Bft) O 96 0 min 0,000 mm 0,0 UV-I 0 W/m 8,0 C 8,1 C 12,9 km/h (3 Bft) 98,57 %
30.10.2015 19:05 9,7 C 90 % 1027,8 hPa 0,0 l/m 9,7 km/h (2 Bft) O 90 0 min 0,000 mm 0,0 UV-I 0 W/m 8,1 C 7,4 C 17,7 km/h (3 Bft) 99,17 %
30.10.2015 19:10 9,7 C 90 % 1027,8 hPa 0,0 l/m 9,7 km/h (2 Bft) O 90 0 min 0,000 mm 0,0 UV-I 0 W/m 8,1 C 7,4 C 17,7 km/h (3 Bft) 100,00 %
30.10.2015 19:15 9,7 C 90 % 1027,8 hPa 0,0 l/m 8,0 km/h (2 Bft) O 90 0 min 0,000 mm 0,0 UV-I 0 W/m 8,1 C 8,5 C 14,5 km/h (3 Bft) 100,00 %
30.10.2015 19:20 9,7 C 90 % 1027,8 hPa 0,0 l/m 8,0 km/h (2 Bft) O 90 0 min 0,000 mm 0,0 UV-I 0 W/m 8,1 C 8,5 C 14,5 km/h (3 Bft) 100,00 %
30.10.2015 19:25 9,7 C 90 % 1027,8 hPa 0,0 l/m 6,4 km/h (2 Bft) O 90 0 min 0,000 mm 0,0 UV-I 0 W/m 8,1 C 9,7 C 12,9 km/h (3 Bft) 100,00 %
30.10.2015 19:30 9,7 C 90 % 1027,8 hPa 0,0 l/m 3,2 km/h (1 Bft) O 90 0 min 0,000 mm 0,0 UV-I 0 W/m 8,1 C 9,7 C 9,7 km/h (2 Bft) 100,00 %
30.10.2015 19:35 9,7 C 90 % 1027,8 hPa 0,0 l/m 3,2 km/h (1 Bft) O-NO 67 0 min 0,000 mm 0,0 UV-I 0 W/m 8,1 C 9,7 C 9,7 km/h (2 Bft) 100,00 %
30.10.2015 19:40 9,7 C 90 % 1027,8 hPa 0,0 l/m 3,2 km/h (1 Bft) O 90 0 min 0,000 mm 0,0 UV-I 0 W/m 8,1 C 9,7 C 12,9 km/h (3 Bft) 100,00 %
30.10.2015 19:45 9,6 C 91 % 1027,9 hPa 0,0 l/m 2,2 km/h (1 Bft) NO 53 0 min 0,000 mm 0,0 UV-I 0 W/m 8,2 C 9,6 C 3,2 km/h (1 Bft) 99,59 %
30.10.2015 19:50 9,6 C 91 % 1027,9 hPa 0,0 l/m 3,2 km/h (1 Bft) N-NO 22 0 min 0,000 mm 0,0 UV-I 0 W/m 8,2 C 9,6 C 6,4 km/h (2 Bft) 100,00 %
30.10.2015 19:55 9,6 C 91 % 1027,8 hPa 0,0 l/m 1,6 km/h (1 Bft) N-NO 26 0 min 0,000 mm 0,0 UV-I 0 W/m 8,2 C 9,6 C 1,6 km/h (1 Bft) 100,00 %
30.10.2015 20:00 9,5 C 91 % 1027,8 hPa 0,0 l/m 3,4 km/h (1 Bft) N-NO 16 0 min 0,000 mm 0,0 UV-I 0 W/m 8,1 C 9,5 C 8,0 km/h (2 Bft) 99,08 %
30.10.2015 20:05 9,5 C 91 % 1028,0 hPa 0,0 l/m 2,7 km/h (1 Bft) O 84 0 min 0,000 mm 0,0 UV-I 0 W/m 8,1 C 9,5 C 4,8 km/h (1 Bft) 97,67 %
30.10.2015 20:10 9,5 C 91 % 1028,0 hPa 0,0 l/m 2,3 km/h (1 Bft) O-NO 71 0 min 0,000 mm 0,0 UV-I 0 W/m 8,1 C 9,5 C 6,4 km/h (2 Bft) 98,21 %
30.10.2015 20:15 9,6 C 91 % 1028,1 hPa 0,0 l/m 2,3 km/h (1 Bft) O 84 0 min 0,000 mm 0,0 UV-I 0 W/m 8,2 C 9,6 C 4,8 km/h (1 Bft) 100,00 %
30.10.2015 20:20 9,5 C 91 % 1028,1 hPa 0,0 l/m 2,1 km/h (1 Bft) NO 36 0 min 0,000 mm 0,0 UV-I 0 W/m 8,1 C 9,5 C 4,8 km/h (1 Bft) 98,31 %
30.10.2015 20:25 9,6 C 91 % 1028,1 hPa 0,0 l/m 2,0 km/h (1 Bft) NO 42 0 min 0,000 mm 0,0 UV-I 0 W/m 8,2 C 9,6 C 4,8 km/h (1 Bft) 100,00 %
30.10.2015 20:30 9,6 C 91 % 1028,2 hPa 0,0 l/m 5,3 km/h (1 Bft) O-NO 57 0 min 0,000 mm 0,0 UV-I 0 W/m 8,2 C 9,6 C 12,9 km/h (3 Bft) 99,19 %
30.10.2015 20:35 9,6 C 91 % 1028,3 hPa 0,0 l/m 4,9 km/h (1 Bft) O 93 0 min 0,000 mm 0,0 UV-I 0 W/m 8,2 C 9,6 C 9,7 km/h (2 Bft) 99,13 %
30.10.2015 20:40 9,6 C 90 % 1028,2 hPa 0,0 l/m 6,7 km/h (2 Bft) O-NO 73 0 min 0,000 mm 0,0 UV-I 0 W/m 8,0 C 9,4 C 14,5 km/h (3 Bft) 99,11 %
30.10.2015 20:45 9,6 C 91 % 1028,3 hPa 0,0 l/m 7,8 km/h (2 Bft) O-NO 67 0 min 0,000 mm 0,0 UV-I 0 W/m 8,2 C 8,6 C 14,5 km/h (3 Bft) 99,21 %
30.10.2015 20:50 9,6 C 90 % 1028,3 hPa 0,0 l/m 8,2 km/h (2 Bft) O 101 0 min 0,000 mm 0,0 UV-I 0 W/m 8,0 C 8,3 C 12,9 km/h (3 Bft) 99,13 %
30.10.2015 20:55 9,6 C 90 % 1028,2 hPa 0,0 l/m 8,0 km/h (2 Bft) O-SO 102 0 min 0,000 mm 0,0 UV-I 0 W/m 8,0 C 8,4 C 16,1 km/h (3 Bft) 99,15 %
30.10.2015 21:00 9,6 C 90 % 1028,3 hPa 0,0 l/m 10,2 km/h (2 Bft) O-NO 69 0 min 0,000 mm 0,0 UV-I 0 W/m 8,0 C 7,0 C 17,7 km/h (3 Bft) 99,13 %
30.10.2015 21:05 9,6 C 90 % 1028,4 hPa 0,0 l/m 8,2 km/h (2 Bft) O-NO 71 0 min 0,000 mm 0,0 UV-I 0 W/m 8,0 C 8,3 C 16,1 km/h (3 Bft) 99,11 %
30.10.2015 21:10 9,6 C 90 % 1028,4 hPa 0,0 l/m 9,2 km/h (2 Bft) O 84 0 min 0,000 mm 0,0 UV-I 0 W/m 8,0 C 7,6 C 17,7 km/h (3 Bft) 99,15 %
30.10.2015 21:15 9,6 C 90 % 1028,4 hPa 0,0 l/m 9,5 km/h (2 Bft) O 80 0 min 0,000 mm 0,0 UV-I 0 W/m 8,0 C 7,5 C 17,7 km/h (3 Bft) 99,21 %
30.10.2015 21:20 9,5 C 90 % 1028,4 hPa 0,0 l/m 10,3 km/h (2 Bft) O 94 0 min 0,000 mm 0,0 UV-I 0 W/m 7,9 C 6,9 C 17,7 km/h (3 Bft) 99,13 %
30.10.2015 21:25 9,5 C 90 % 1028,5 hPa 0,0 l/m 11,7 km/h (2 Bft) NO 55 0 min 0,000 mm 0,0 UV-I 0 W/m 7,9 C 6,1 C 22,5 km/h (4 Bft) 100,00 %
30.10.2015 21:30 9,4 C 90 % 1028,5 hPa 0,0 l/m 11,0 km/h (2 Bft) O-NO 70 0 min 0,000 mm 0,0 UV-I 0 W/m 7,8 C 6,4 C 22,5 km/h (4 Bft) 100,00 %
30.10.2015 21:35 9,4 C 90 % 1028,5 hPa 0,0 l/m 11,6 km/h (2 Bft) O 82 0 min 0,000 mm 0,0 UV-I 0 W/m 7,8 C 6,0 C 27,4 km/h (4 Bft) 99,17 %
30.10.2015 21:40 9,4 C 90 % 1028,6 hPa 0,0 l/m 11,1 km/h (2 Bft) O-NO 67 0 min 0,000 mm 0,0 UV-I 0 W/m 7,8 C 6,3 C 22,5 km/h (4 Bft) 99,08 %
30.10.2015 21:45 9,3 C 90 % 1028,6 hPa 0,0 l/m 12,1 km/h (2 Bft) O 90 0 min 0,000 mm 0,0 UV-I 0 W/m 7,7 C 5,7 C 24,1 km/h (4 Bft) 99,17 %
30.10.2015 21:50 9,3 C 90 % 1028,6 hPa 0,0 l/m 11,6 km/h (2 Bft) O-SO 107 0 min 0,000 mm 0,0 UV-I 0 W/m 7,7 C 5,9 C 24,1 km/h (4 Bft) 97,44 %
30.10.2015 21:55 9,3 C 90 % 1028,6 hPa 0,0 l/m 10,3 km/h (2 Bft) O-NO 74 0 min 0,000 mm 0,0 UV-I 0 W/m 7,7 C 6,6 C 19,3 km/h (3 Bft) 100,00 %
30.10.2015 22:00 9,3 C 90 % 1028,6 hPa 0,0 l/m 9,9 km/h (2 Bft) O 89 0 min 0,000 mm 0,0 UV-I 0 W/m 7,7 C 6,9 C 29,0 km/h (5 Bft) 99,08 %
30.10.2015 22:05 9,3 C 90 % 1028,7 hPa 0,0 l/m 10,5 km/h (2 Bft) O-SO 104 0 min 0,025 mm 0,0 UV-I 0 W/m 7,7 C 6,5 C 17,7 km/h (3 Bft) 99,21 %
30.10.2015 22:10 9,3 C 90 % 1028,7 hPa 0,0 l/m 11,6 km/h (2 Bft) O 92 0 min 0,001 mm 0,0 UV-I 0 W/m 7,7 C 5,9 C 17,7 km/h (3 Bft) 100,00 %
30.10.2015 22:15 9,2 C 90 % 1028,6 hPa 0,0 l/m 11,7 km/h (2 Bft) O 79 0 min 0,000 mm 0,0 UV-I 0 W/m 7,6 C 5,8 C 20,9 km/h (4 Bft) 100,00 %
30.10.2015 22:20 9,2 C 90 % 1028,5 hPa 0,0 l/m 12,1 km/h (2 Bft) O-NO 64 0 min 0,000 mm 0,0 UV-I 0 W/m 7,6 C 5,5 C 20,9 km/h (4 Bft) 97,44 %
30.10.2015 22:25 9,2 C 90 % 1028,5 hPa 0,0 l/m 12,2 km/h (2 Bft) O 98 0 min 0,000 mm 0,0 UV-I 0 W/m 7,6 C 5,5 C 24,1 km/h (4 Bft) 99,15 %
30.10.2015 22:28 9,2 C 90 % 1028,5 hPa 0,0 l/m 13,3 km/h (3 Bft) O-NO 58 0 min 0,000 mm 0,0 UV-I 0 W/m 7,6 C 4,9 C 25,7 km/h (4 Bft) 100,00 %
30.10.2015 22:29 9,2 C 90 % 1028,5 hPa 0,0 l/m 6,4 km/h (2 Bft) O 97 0 min 0,000 mm 0,0 UV-I 0 W/m 7,6 C 9,2 C 11,3 km/h (2 Bft) 100,00 %
30.10.2015 22:30 9,2 C 90 % 1028,6 hPa 0,0 l/m 9,3 km/h (2 Bft) O 83 0 min 0,000 mm 0,0 UV-I 0 W/m 7,6 C 7,1 C 17,7 km/h (3 Bft) 100,00 %
30.10.2015 22:31 9,2 C 90 % 1028,6 hPa 0,0 l/m 12,7 km/h (3 Bft) O 85 0 min 0,000 mm 0,0 UV-I 0 W/m 7,6 C 5,2 C 17,7 km/h (3 Bft) 100,00 %
30.10.2015 22:32 9,2 C 90 % 1028,5 hPa 0,0 l/m 10,0 km/h (2 Bft) O-NO 74 0 min 0,000 mm 0,0 UV-I 0 W/m 7,6 C 6,7 C 14,5 km/h (3 Bft) 100,00 %
30.10.2015 22:33 9,2 C 90 % 1028,6 hPa 0,0 l/m 8,2 km/h (2 Bft) NO 35 0 min 0,000 mm 0,0 UV-I 0 W/m 7,6 C 7,9 C 14,5 km/h (3 Bft) 95,83 %
30.10.2015 22:34 9,2 C 90 % 1028,5 hPa 0,0 l/m 9,5 km/h (2 Bft) NO 50 0 min 0,000 mm 0,0 UV-I 0 W/m 7,6 C 7,0 C 17,7 km/h (3 Bft) 100,00 %
30.10.2015 22:35 9,2 C 90 % 1028,6 hPa 0,0 l/m 12,4 km/h (3 Bft) O 97 0 min 0,000 mm 0,0 UV-I 0 W/m 7,6 C 5,4 C 20,9 km/h (4 Bft) 100,00 %
30.10.2015 22:36 9,2 C 90 % 1028,6 hPa 0,0 l/m 10,9 km/h (2 Bft) O 82 0 min 0,000 mm 0,0 UV-I 0 W/m 7,6 C 6,2 C 14,5 km/h (3 Bft) 100,00 %
30.10.2015 22:37 9,2 C 90 % 1028,6 hPa 0,0 l/m 15,9 km/h (3 Bft) O-SO 105 0 min 0,000 mm 0,0 UV-I 0 W/m 7,6 C 3,8 C 22,5 km/h (4 Bft) 100,00 %
30.10.2015 22:38 9,2 C 90 % 1028,6 hPa 0,0 l/m 12,6 km/h (3 Bft) O 80 0 min 0,000 mm 0,0 UV-I 0 W/m 7,6 C 5,3 C 20,9 km/h (4 Bft) 100,00 %
30.10.2015 22:39 9,2 C 90 % 1028,6 hPa 0,0 l/m 7,0 km/h (2 Bft) O 79 0 min 0,000 mm 0,0 UV-I 0 W/m 7,6 C 8,8 C 11,3 km/h (2 Bft) 95,65 %
30.10.2015 22:40 9,1 C 90 % 1028,6 hPa 0,0 l/m 10,7 km/h (2 Bft) O-SO 104 0 min 0,000 mm 0,0 UV-I 0 W/m 7,5 C 6,2 C 16,1 km/h (3 Bft) 100,00 %
30.10.2015 22:41 9,1 C 90 % 1028,6 hPa 0,0 l/m 9,1 km/h (2 Bft) SO 126 0 min 0,000 mm 0,0 UV-I 0 W/m 7,5 C 7,2 C 14,5 km/h (3 Bft) 100,00 %
30.10.2015 22:42 9,1 C 90 % 1028,6 hPa 0,0 l/m 9,9 km/h (2 Bft) O-SO 107 0 min 0,000 mm 0,0 UV-I 0 W/m 7,5 C 6,7 C 17,7 km/h (3 Bft) 100,00 %
30.10.2015 22:43 9,1 C 90 % 1028,6 hPa 0,0 l/m 10,3 km/h (2 Bft) O-SO 103 0 min 0,000 mm 0,0 UV-I 0 W/m 7,5 C 6,4 C 17,7 km/h (3 Bft) 91,30 %
30.10.2015 22:44 9,1 C 90 % 1028,5 hPa 0,0 l/m 10,4 km/h (2 Bft) O-SO 123 0 min 0,000 mm 0,0 UV-I 0 W/m 7,5 C 6,4 C 19,3 km/h (3 Bft) 100,00 %
30.10.2015 22:45 9,1 C 90 % 1028,6 hPa 0,0 l/m 14,1 km/h (3 Bft) O-SO 123 0 min 0,000 mm 0,0 UV-I 0 W/m 7,5 C 4,4 C 22,5 km/h (4 Bft) 100,00 %
30.10.2015 22:46 9,1 C 90 % 1028,6 hPa 0,0 l/m 13,3 km/h (3 Bft) O-NO 70 0 min 0,000 mm 0,0 UV-I 0 W/m 7,5 C 4,8 C 19,3 km/h (3 Bft) 100,00 %
30.10.2015 22:47 9,1 C 90 % 1028,5 hPa 0,0 l/m 13,5 km/h (3 Bft) O-NO 71 0 min 0,000 mm 0,0 UV-I 0 W/m 7,5 C 4,7 C 22,5 km/h (4 Bft) 100,00 %
30.10.2015 22:48 9,1 C 90 % 1028,5 hPa 0,0 l/m 14,1 km/h (3 Bft) SO 142 0 min 0,000 mm 0,0 UV-I 0 W/m 7,5 C 4,4 C 27,4 km/h (4 Bft) 100,00 %
30.10.2015 22:49 9,1 C 90 % 1028,5 hPa 0,0 l/m 8,9 km/h (2 Bft) O-NO 58 0 min 0,000 mm 0,0 UV-I 0 W/m 7,5 C 7,3 C 16,1 km/h (3 Bft) 100,00 %
30.10.2015 22:50 9,1 C 90 % 1028,5 hPa 0,0 l/m 15,4 km/h (3 Bft) O-NO 78 0 min 0,000 mm 0,0 UV-I 0 W/m 7,5 C 3,9 C 27,4 km/h (4 Bft) 100,00 %
30.10.2015 22:51 9,1 C 90 % 1028,5 hPa 0,0 l/m 12,4 km/h (3 Bft) O 93 0 min 0,000 mm 0,0 UV-I 0 W/m 7,5 C 5,3 C 17,7 km/h (3 Bft) 100,00 %
30.10.2015 22:52 9,1 C 90 % 1028,5 hPa 0,0 l/m 12,3 km/h (3 Bft) O 90 0 min 0,000 mm 0,0 UV-I 0 W/m 7,5 C 5,3 C 25,7 km/h (4 Bft) 95,65 %
30.10.2015 22:53 9,1 C 90 % 1028,5 hPa 0,0 l/m 12,1 km/h (2 Bft) O-NO 69 0 min 0,000 mm 0,0 UV-I 0 W/m 7,5 C 5,4 C 24,1 km/h (4 Bft) 100,00 %
30.10.2015 22:54 9,1 C 90 % 1028,5 hPa 0,0 l/m 15,3 km/h (3 Bft) O 95 0 min 0,000 mm 0,0 UV-I 0 W/m 7,5 C 3,9 C 22,5 km/h (4 Bft) 100,00 %
30.10.2015 22:55 9,1 C 90 % 1028,6 hPa 0,0 l/m 13,1 km/h (3 Bft) O 90 0 min 0,000 mm 0,0 UV-I 0 W/m 7,5 C 4,9 C 19,3 km/h (3 Bft) 100,00 %
30.10.2015 22:56 9,1 C 90 % 1028,5 hPa 0,0 l/m 10,0 km/h (2 Bft) O 79 0 min 0,000 mm 0,0 UV-I 0 W/m 7,5 C 6,6 C 14,5 km/h (3 Bft) 95,65 %
30.10.2015 22:57 9,1 C 90 % 1028,5 hPa 0,0 l/m 5,9 km/h (2 Bft) O 100 0 min 0,000 mm 0,0 UV-I 0 W/m 7,5 C 9,1 C 11,3 km/h (2 Bft) 100,00 %
30.10.2015 22:58 9,1 C 90 % 1028,5 hPa 0,0 l/m 6,4 km/h (2 Bft) NO 47 0 min 0,000 mm 0,0 UV-I 0 W/m 7,5 C 9,1 C 12,9 km/h (3 Bft) 95,65 %
30.10.2015 22:59 9,1 C 90 % 1028,6 hPa 0,0 l/m 10,3 km/h (2 Bft) O-NO 71 0 min 0,000 mm 0,0 UV-I 0 W/m 7,5 C 6,4 C 16,1 km/h (3 Bft) 100,00 %
30.10.2015 23:00 9,1 C 90 % 1028,5 hPa 0,0 l/m 8,1 km/h (2 Bft) SO 126 0 min 0,000 mm 0,0 UV-I 0 W/m 7,5 C 7,8 C 12,9 km/h (3 Bft) 100,00 %
30.10.2015 23:01 9,1 C 90 % 1028,6 hPa 0,0 l/m 5,6 km/h (1 Bft) N-NO 17 0 min 0,025 mm 0,0 UV-I 0 W/m 7,5 C 9,1 C 14,5 km/h (3 Bft) 95,83 %
30.10.2015 23:02 9,1 C 90 % 1028,6 hPa 0,0 l/m 10,7 km/h (2 Bft) O 93 0 min 0,000 mm 0,0 UV-I 0 W/m 7,5 C 6,2 C 19,3 km/h (3 Bft) 100,00 %
30.10.2015 23:03 9,1 C 90 % 1028,6 hPa 0,0 l/m 9,1 km/h (2 Bft) O 93 0 min 0,000 mm 0,0 UV-I 0 W/m 7,5 C 7,2 C 14,5 km/h (3 Bft) 100,00 %
30.10.2015 23:04 9,1 C 90 % 1028,6 hPa 0,0 l/m 8,8 km/h (2 Bft) O-SO 103 0 min 0,000 mm 0,0 UV-I 0 W/m 7,5 C 7,4 C 14,5 km/h (3 Bft) 100,00 %
30.10.2015 23:05 9,1 C 90 % 1028,6 hPa 0,0 l/m 11,3 km/h (2 Bft) O 79 0 min 0,000 mm 0,0 UV-I 0 W/m 7,5 C 5,9 C 22,5 km/h (4 Bft) 100,00 %
30.10.2015 23:06 9,0 C 90 % 1028,6 hPa 0,0 l/m 9,3 km/h (2 Bft) O 88 0 min 0,000 mm 0,0 UV-I 0 W/m 7,4 C 6,9 C 16,1 km/h (3 Bft) 100,00 %
30.10.2015 23:07 9,1 C 90 % 1028,6 hPa 0,0 l/m 10,9 km/h (2 Bft) O-NO 66 0 min 0,000 mm 0,0 UV-I 0 W/m 7,5 C 6,1 C 17,7 km/h (3 Bft) 100,00 %
30.10.2015 23:08 9,0 C 90 % 1028,6 hPa 0,0 l/m 13,6 km/h (3 Bft) NO 42 0 min 0,000 mm 0,0 UV-I 0 W/m 7,4 C 4,6 C 22,5 km/h (4 Bft) 100,00 %
30.10.2015 23:09 9,1 C 90 % 1028,6 hPa 0,0 l/m 9,7 km/h (2 Bft) O 79 0 min 0,000 mm 0,0 UV-I 0 W/m 7,5 C 6,8 C 20,9 km/h (4 Bft) 100,00 %
30.10.2015 23:10 9,0 C 90 % 1028,6 hPa 0,0 l/m 11,4 km/h (2 Bft) O-SO 107 0 min 0,000 mm 0,0 UV-I 0 W/m 7,4 C 5,7 C 17,7 km/h (3 Bft) 100,00 %
30.10.2015 23:11 9,0 C 90 % 1028,6 hPa 0,0 l/m 13,3 km/h (3 Bft) O 88 0 min 0,000 mm 0,0 UV-I 0 W/m 7,4 C 4,7 C 22,5 km/h (4 Bft) 91,67 %
30.10.2015 23:12 9,0 C 90 % 1028,6 hPa 0,0 l/m 14,6 km/h (3 Bft) O-NO 76 0 min 0,000 mm 0,0 UV-I 0 W/m 7,4 C 4,1 C 22,5 km/h (4 Bft) 100,00 %
30.10.2015 23:13 9,0 C 90 % 1028,5 hPa 0,0 l/m 9,9 km/h (2 Bft) O-SO 115 0 min 0,000 mm 0,0 UV-I 0 W/m 7,4 C 6,6 C 12,9 km/h (3 Bft) 100,00 %
30.10.2015 23:14 9,0 C 90 % 1028,6 hPa 0,0 l/m 15,2 km/h (3 Bft) O 79 0 min 0,000 mm 0,0 UV-I 0 W/m 7,4 C 3,8 C 25,7 km/h (4 Bft) 100,00 %
30.10.2015 23:15 9,0 C 90 % 1028,6 hPa 0,0 l/m 12,5 km/h (3 Bft) O 96 0 min 0,000 mm 0,0 UV-I 0 W/m 7,4 C 5,1 C 19,3 km/h (3 Bft) 100,00 %
30.10.2015 23:16 9,0 C 90 % 1028,6 hPa 0,0 l/m 15,2 km/h (3 Bft) O 87 0 min 0,000 mm 0,0 UV-I 0 W/m 7,4 C 3,8 C 29,0 km/h (5 Bft) 95,83 %
30.10.2015 23:17 9,0 C 90 % 1028,6 hPa 0,0 l/m 16,6 km/h (3 Bft) O 99 0 min 0,000 mm 0,0 UV-I 0 W/m 7,4 C 3,3 C 25,7 km/h (4 Bft) 95,65 %
30.10.2015 23:18 8,9 C 90 % 1028,5 hPa 0,0 l/m 12,3 km/h (3 Bft) O 79 0 min 0,000 mm 0,0 UV-I 0 W/m 7,4 C 5,1 C 16,1 km/h (3 Bft) 100,00 %
30.10.2015 23:19 8,9 C 90 % 1028,5 hPa 0,0 l/m 13,3 km/h (3 Bft) O-NO 58 0 min 0,000 mm 0,0 UV-I 0 W/m 7,4 C 4,6 C 19,3 km/h (3 Bft) 95,65 %
30.10.2015 23:20 9,0 C 90 % 1028,6 hPa 0,0 l/m 14,6 km/h (3 Bft) O 87 0 min 0,000 mm 0,0 UV-I 0 W/m 7,4 C 4,1 C 25,7 km/h (4 Bft) 100,00 %
30.10.2015 23:21 8,9 C 90 % 1028,6 hPa 0,0 l/m 13,6 km/h (3 Bft) O 94 0 min 0,000 mm 0,0 UV-I 0 W/m 7,4 C 4,4 C 19,3 km/h (3 Bft) 100,00 %
30.10.2015 23:22 8,9 C 90 % 1028,6 hPa 0,0 l/m 13,7 km/h (3 Bft) NO 52 0 min 0,000 mm 0,0 UV-I 0 W/m 7,4 C 4,4 C 19,3 km/h (3 Bft) 100,00 %
30.10.2015 23:23 8,9 C 90 % 1028,6 hPa 0,0 l/m 6,0 km/h (2 Bft) O 91 0 min 0,000 mm 0,0 UV-I 0 W/m 7,4 C 8,9 C 9,7 km/h (2 Bft) 95,65 %
30.10.2015 23:24 8,9 C 90 % 1028,6 hPa 0,0 l/m 7,8 km/h (2 Bft) O 88 0 min 0,000 mm 0,0 UV-I 0 W/m 7,4 C 7,8 C 14,5 km/h (3 Bft) 100,00 %
30.10.2015 23:25 8,9 C 90 % 1028,6 hPa 0,0 l/m 5,7 km/h (1 Bft) O-SO 113 0 min 0,000 mm 0,0 UV-I 0 W/m 7,4 C 8,9 C 9,7 km/h (2 Bft) 100,00 %
30.10.2015 23:26 8,9 C 90 % 1028,6 hPa 0,0 l/m 11,8 km/h (2 Bft) O 101 0 min 0,000 mm 0,0 UV-I 0 W/m 7,4 C 5,4 C 19,3 km/h (3 Bft) 100,00 %
30.10.2015 23:27 8,9 C 90 % 1028,6 hPa 0,0 l/m 12,9 km/h (3 Bft) O-NO 57 0 min 0,000 mm 0,0 UV-I 0 W/m 7,4 C 4,8 C 19,3 km/h (3 Bft) 100,00 %
30.10.2015 23:28 8,9 C 90 % 1028,6 hPa 0,0 l/m 16,7 km/h (3 Bft) O 96 0 min 0,000 mm 0,0 UV-I 0 W/m 7,4 C 3,1 C 22,5 km/h (4 Bft) 100,00 %
30.10.2015 23:29 8,9 C 90 % 1028,6 hPa 0,0 l/m 14,4 km/h (3 Bft) O 85 0 min 0,000 mm 0,0 UV-I 0 W/m 7,4 C 4,1 C 17,7 km/h (3 Bft) 100,00 %
30.10.2015 23:30 8,9 C 90 % 1028,6 hPa 0,0 l/m 11,7 km/h (2 Bft) O-SO 119 0 min 0,000 mm 0,0 UV-I 0 W/m 7,4 C 5,4 C 17,7 km/h (3 Bft) 95,65 %
30.10.2015 23:31 8,9 C 90 % 1028,6 hPa 0,0 l/m 7,3 km/h (2 Bft) O-NO 65 0 min 0,000 mm 0,0 UV-I 0 W/m 7,4 C 8,2 C 12,9 km/h (3 Bft) 100,00 %
30.10.2015 23:32 8,9 C 90 % 1028,6 hPa 0,0 l/m 14,3 km/h (3 Bft) O-NO 66 0 min 0,000 mm 0,0 UV-I 0 W/m 7,4 C 4,1 C 22,5 km/h (4 Bft) 95,65 %
30.10.2015 23:33 8,9 C 90 % 1028,6 hPa 0,0 l/m 9,3 km/h (2 Bft) O-NO 74 0 min 0,000 mm 0,0 UV-I 0 W/m 7,4 C 6,8 C 12,9 km/h (3 Bft) 100,00 %
30.10.2015 23:34 8,9 C 90 % 1028,6 hPa 0,0 l/m 7,8 km/h (2 Bft) O-NO 59 0 min 0,000 mm 0,0 UV-I 0 W/m 7,4 C 7,8 C 11,3 km/h (2 Bft) 95,65 %
30.10.2015 23:35 8,9 C 90 % 1028,5 hPa 0,0 l/m 8,5 km/h (2 Bft) O-NO 70 0 min 0,000 mm 0,0 UV-I 0 W/m 7,4 C 7,3 C 14,5 km/h (3 Bft) 100,00 %
30.10.2015 23:36 8,9 C 91 % 1028,6 hPa 0,0 l/m 9,1 km/h (2 Bft) O-SO 108 0 min 0,000 mm 0,0 UV-I 0 W/m 7,5 C 6,9 C 14,5 km/h (3 Bft) 95,65 %
30.10.2015 23:37 8,9 C 91 % 1028,6 hPa 0,0 l/m 7,2 km/h (2 Bft) O 89 0 min 0,000 mm 0,0 UV-I 0 W/m 7,5 C 8,3 C 12,9 km/h (3 Bft) 95,83 %
30.10.2015 23:38 8,8 C 91 % 1028,6 hPa 0,0 l/m 6,4 km/h (2 Bft) O-NO 67 0 min 0,000 mm 0,0 UV-I 0 W/m 7,4 C 8,8 C 11,3 km/h (2 Bft) 91,30 %
30.10.2015 23:39 8,8 C 91 % 1028,6 hPa 0,0 l/m 4,9 km/h (1 Bft) O-NO 69 0 min 0,000 mm 0,0 UV-I 0 W/m 7,4 C 8,8 C 9,7 km/h (2 Bft) 95,83 %
30.10.2015 23:40 8,8 C 91 % 1028,6 hPa 0,0 l/m 8,0 km/h (2 Bft) O 92 0 min 0,000 mm 0,0 UV-I 0 W/m 7,4 C 7,6 C 12,9 km/h (3 Bft) 95,65 %
30.10.2015 23:41 8,8 C 91 % 1028,5 hPa 0,0 l/m 10,5 km/h (2 Bft) O 88 0 min 0,000 mm 0,0 UV-I 0 W/m 7,4 C 6,0 C 17,7 km/h (3 Bft) 95,83 %
30.10.2015 23:42 8,8 C 91 % 1028,5 hPa 0,0 l/m 8,7 km/h (2 Bft) O-NO 70 0 min 0,000 mm 0,0 UV-I 0 W/m 7,4 C 7,1 C 12,9 km/h (3 Bft) 100,00 %
30.10.2015 23:43 8,8 C 91 % 1028,6 hPa 0,0 l/m 8,9 km/h (2 Bft) O 101 0 min 0,000 mm 0,0 UV-I 0 W/m 7,4 C 7,0 C 14,5 km/h (3 Bft) 100,00 %
30.10.2015 23:44 8,8 C 91 % 1028,5 hPa 0,0 l/m 8,3 km/h (2 Bft) O 92 0 min 0,000 mm 0,0 UV-I 0 W/m 7,4 C 7,4 C 12,9 km/h (3 Bft) 100,00 %
30.10.2015 23:45 8,8 C 91 % 1028,6 hPa 0,0 l/m 10,3 km/h (2 Bft) O-NO 57 0 min 0,000 mm 0,0 UV-I 0 W/m 7,4 C 6,1 C 19,3 km/h (3 Bft) 95,83 %
30.10.2015 23:46 8,8 C 91 % 1028,6 hPa 0,0 l/m 13,7 km/h (3 Bft) O 96 0 min 0,000 mm 0,0 UV-I 0 W/m 7,4 C 4,3 C 20,9 km/h (4 Bft) 95,65 %
30.10.2015 23:47 8,8 C 91 % 1028,6 hPa 0,0 l/m 9,7 km/h (2 Bft) O 85 0 min 0,000 mm 0,0 UV-I 0 W/m 7,4 C 6,5 C 19,3 km/h (3 Bft) 100,00 %
30.10.2015 23:48 8,8 C 91 % 1028,6 hPa 0,0 l/m 13,0 km/h (3 Bft) O-NO 74 0 min 0,000 mm 0,0 UV-I 0 W/m 7,4 C 4,6 C 19,3 km/h (3 Bft) 100,00 %
30.10.2015 23:49 8,8 C 91 % 1028,6 hPa 0,0 l/m 14,9 km/h (3 Bft) N-NO 19 0 min 0,000 mm 0,0 UV-I 0 W/m 7,4 C 3,7 C 20,9 km/h (4 Bft) 100,00 %
30.10.2015 23:50 8,8 C 91 % 1028,6 hPa 0,0 l/m 13,6 km/h (3 Bft) O-NO 74 0 min 0,000 mm 0,0 UV-I 0 W/m 7,4 C 4,3 C 19,3 km/h (3 Bft) 100,00 %
30.10.2015 23:51 8,8 C 91 % 1028,6 hPa 0,0 l/m 15,2 km/h (3 Bft) SO 136 0 min 0,000 mm 0,0 UV-I 0 W/m 7,4 C 3,6 C 20,9 km/h (4 Bft) 100,00 %
30.10.2015 23:52 8,8 C 91 % 1028,5 hPa 0,0 l/m 8,9 km/h (2 Bft) O 86 0 min 0,000 mm 0,0 UV-I 0 W/m 7,4 C 7,0 C 19,3 km/h (3 Bft) 100,00 %
30.10.2015 23:53 8,8 C 91 % 1028,6 hPa 0,0 l/m 16,6 km/h (3 Bft) O-SO 111 0 min 0,000 mm 0,0 UV-I 0 W/m 7,4 C 3,0 C 22,5 km/h (4 Bft) 100,00 %
30.10.2015 23:54 8,8 C 91 % 1028,6 hPa 0,0 l/m 13,4 km/h (3 Bft) O-NO 62 0 min 0,000 mm 0,0 UV-I 0 W/m 7,4 C 4,4 C 19,3 km/h (3 Bft) 100,00 %
30.10.2015 23:55 8,8 C 90 % 1028,5 hPa 0,0 l/m 15,3 km/h (3 Bft) O-NO 63 0 min 0,000 mm 0,0 UV-I 0 W/m 7,3 C 3,5 C 20,9 km/h (4 Bft) 100,00 %
30.10.2015 23:56 8,8 C 91 % 1028,5 hPa 0,0 l/m 13,3 km/h (3 Bft) O-NO 74 0 min 0,000 mm 0,0 UV-I 0 W/m 7,4 C 4,5 C 17,7 km/h (3 Bft) 100,00 %
30.10.2015 23:57 8,7 C 90 % 1028,5 hPa 0,0 l/m 13,0 km/h (3 Bft) O 98 0 min 0,000 mm 0,0 UV-I 0 W/m 7,2 C 4,5 C 19,3 km/h (3 Bft) 100,00 %
30.10.2015 23:58 8,7 C 90 % 1028,5 hPa 0,0 l/m 11,9 km/h (2 Bft) O 96 0 min 0,000 mm 0,0 UV-I 0 W/m 7,2 C 5,1 C 16,1 km/h (3 Bft) 100,00 %
30.10.2015 23:59 8,7 C 91 % 1028,5 hPa 0,0 l/m 14,0 km/h (3 Bft) SO 130 0 min 0,000 mm 0,0 UV-I 0 W/m 7,3 C 4,0 C 22,5 km/h (4 Bft) 100,00 %
_ Min-Zeit 02:20 15:00 00:00 - 00:00 - - - - - - 07:45 23:53 00:00 22:43
Minimum _ 7,9 C 84 % 1024,1 hPa - 0,0 km/h (0 Bft) - - - - - - 7,0 C 3,0 C 0,0 km/h (0 Bft) 91,30 %
_ Max-Zeit 12:45 00:15 22:05 00:00 23:28 - - 00:00 10:00 11:15 11:45 11:50 11:50 22:00 00:00
Maximum _ 10,3 C 94 % 1028,7 hPa 0,0 l/m 16,7 km/h
O (3 Bft)
- - 0 min 0,051 mm 0,7 UV-I 126 W/m 8,3 C 10,2 C 29,0 km/h
O (5 Bft)
100,00 %
Durchschnitt _ 9,2 C 90 % 1026,5 hPa #0,0 l/m 5,2 km/h (1 Bft) O - #0 min. #0,457 mm 0,5 UV-I 64 W/m 7,6 C 8,4 C 10,6 km/h (2 Bft) 98,96 %